GFSNGP_925_temp_084.txt.gz
Temp
13 14 15 15 15 13 12 13 14 14 15 15 15 14 14 15 17 19 17 17 16 14 13 13 12 11 12 13 14 16 16 14 14 14 14 13 14 14 14 14 14 13 14 13
13 15 15 15 16 15 12 13 13 14 12 15 14 14 14 14 16 17 16 15 14 13 11 11 10 9 10 10 11 13 14 15 15 14 13 13 13 14 13 13 13 13 13 13
11 14 14 13 15 16 14 14 13 13 16 15 14 15 15 14 15 15 14 13 12 10 9 7 7 7 9 9 9 9 9 10 11 11 13 14 14 13 13 13 13 13 13 13
10 12 12 15 16 17 17 17 15 16 16 16 14 14 16 16 14 13 12 10 9 8 6 5 5 5 6 6 7 7 7 8 8 8 8 10 12 14 14 14 13 13 13 13
9 11 13 15 17 17 17 15 15 17 16 15 15 14 12 12 12 11 10 8 7 5 5 4 3 4 4 3 4 4 4 5 5 5 6 6 7 8 10 14 14 14 14 13
7 10 10 13 16 18 17 13 14 16 16 15 14 12 11 10 9 8 8 6 5 4 3 2 2 3 3 3 3 3 3 3 2 2 2 4 4 6 7 9 13 14 14 14
8 8 10 14 13 15 14 12 12 13 13 12 11 11 9 8 7 5 5 4 4 2 1 0 1 2 2 2 1 2 1 0 -0 -1 -0 0 0 2 4 6 8 12 13 12
8 8 10 11 13 13 11 11 11 11 11 10 9 9 7 6 5 4 3 2 2 2 0 -1 -1 -0 0 -0 -0 1 -0 -1 -2 -2 -2 -2 -2 -1 0 2 4 4 3 1
10 10 9 10 10 11 10 9 9 9 10 9 8 6 6 4 3 2 1 0 0 -0 -1 -2 -2 -2 -2 -2 -1 -0 -1 -2 -3 -3 -4 -3 -3 -3 -2 -1 0 -0 -1 -2
11 9 9 8 9 9 9 10 9 8 8 7 6 5 3 2 1 0 -1 -1 -2 -3 -3 -3 -3 -3 -3 -3 -2 -2 -2 -3 -4 -4 -4 -4 -4 -3 -3 -3 -2 -2 -2 -3
8 8 8 7 6 6 7 7 5 4 4 4 4 2 1 0 -0 -1 -2 -3 -3 -4 -4 -4 -4 -4 -4 -4 -3 -3 -3 -4 -4 -4 -4 -4 -4 -4 -4 -4 -4 -4 -4 -4
7 5 6 5 5 5 4 3 4 3 1 0 1 0 -1 -2 -3 -3 -4 -4 -4 -5 -5 -5 -5 -5 -5 -4 -4 -4 -4 -5 -5 -5 -5 -5 -5 -5 -6 -5 -5 -4 -4 -4
5 3 2 2 2 4 3 2 1 0 -1 -2 -3 -3 -4 -4 -5 -5 -5 -5 -6 -6 -6 -6 -6 -6 -5 -5 -5 -5 -5 -5 -6 -6 -6 -6 -6 -6 -7 -6 -7 -7 -6 -5
5 5 3 2 1 3 2 1 -1 -2 -3 -4 -5 -5 -6 -6 -7 -7 -7 -7 -8 -8 -8 -7 -7 -7 -6 -6 -6 -6 -7 -7 -7 -7 -7 -7 -7 -7 -7 -8 -8 -9 -9 -9
3 3 2 2 1 0 0 -0 -2 -3 -3 -4 -5 -6 -7 -8 -9 -9 -9 -8 -8 -9 -9 -9 -8 -8 -7 -6 -7 -7 -7 -7 -8 -8 -8 -8 -8 -9 -9 -9 -10 -10 -9 -9
1 1 1 -0 -1 -2 -2 -2 -3 -4 -4 -6 -6 -7 -8 -9 -10 -11 -11 -11 -11 -10 -10 -9 -9 -8 -8 -7 -7 -8 -8 -8 -8 -8 -9 -9 -9 -10 -10 -10 -11 -11 -12 -12
-0 -1 -1 -1 -2 -3 -4 -5 -6 -7 -8 -8 -8 -9 -10 -10 -11 -11 -12 -11 -11 -11 -11 -10 -9 -9 -8 -8 -8 -9 -9 -9 -9 -9 -10 -10 -11 -11 -11 -12 -12 -13 -13 -13
-3 -4 -4 -3 -4 -4 -5 -6 -7 -7 -8 -9 -10 -10 -11 -11 -11 -12 -12 -11 -11 -11 -11 -11 -10 -9 -9 -9 -9 -9 -10 -10 -10 -11 -11 -11 -11 -12 -12 -13 -13 -13 -14 -14
-4 -4 -5 -5 -6 -6 -7 -7 -8 -9 -10 -10 -11 -11 -12 -12 -13 -13 -13 -13 -13 -13 -12 -11 -11 -11 -10 -10 -10 -10 -11 -11 -11 -12 -12 -12 -13 -13 -13 -13 -14 -14 -14 -15
-6 -7 -7 -7 -8 -8 -9 -10 -10 -10 -10 -11 -11 -12 -12 -13 -13 -13 -14 -14 -14 -14 -13 -12 -12 -12 -12 -11 -11 -11 -11 -12 -13 -13 -13 -13 -13 -14 -14 -14 -15 -15 -15 -16
-10 -10 -10 -10 -10 -10 -10 -10 -10 -11 -11 -11 -12 -13 -13 -13 -13 -13 -14 -14 -14 -14 -13 -13 -13 -13 -13 -13 -13 -13 -13 -13 -13 -14 -14 -14 -14 -15 -15 -15 -15 -16 -16 -16
-9 -10 -10 -10 -10 -10 -10 -10 -10 -10 -11 -11 -12 -13 -13 -14 -14 -15 -15 -15 -15 -14 -14 -14 -14 -14 -13 -13 -14 -14 -14 -14 -14 -15 -15 -15 -15 -16 -16 -16 -16 -17 -17 -17
-9 -9 -9 -10 -10 -10 -10 -10 -11 -11 -11 -12 -12 -12 -13 -14 -14 -14 -15 -15 -15 -15 -15 -15 -15 -14 -14 -15 -15 -15 -15 -15 -15 -15 -16 -16 -16 -16 -17 -17 -17 -18 -18 -18
-8 -9 -9 -9 -10 -10 -10 -11 -11 -11 -11 -12 -12 -13 -13 -14 -14 -15 -15 -15 -15 -15 -15 -15 -15 -15 -15 -15 -16 -16 -16 -16 -16 -16 -17 -17 -17 -17 -17 -18 -18 -19 -19 -19
-8 -8 -9 -9 -9 -9 -10 -10 -10 -10 -11 -12 -13 -13 -13 -14 -14 -14 -14 -15 -15 -15 -15 -15 -16 -16 -16 -16 -16 -17 -17 -17 -17 -17 -17 -18 -18 -18 -18 -19 -19 -19 -20 -20
-8 -8 -9 -9 -9 -9 -9 -9 -10 -11 -12 -13 -13 -13 -13 -14 -14 -14 -14 -15 -15 -15 -15 -16 -16 -16 -16 -16 -17 -17 -17 -17 -17 -18 -18 -18 -19 -19 -19 -19 -20 -20 -20 -21
-8 -8 -9 -10 -10 -10 -10 -11 -11 -12 -12 -13 -13 -13 -14 -14 -14 -14 -15 -15 -15 -15 -16 -16 -16 -16 -17 -17 -17 -17 -17 -18 -18 -18 -18 -18 -19 -19 -20 -20 -20 -20 -21 -21

GFSNGP_925_temp_087.txt.gz
Temp
12 13 13 13 14 14 12 12 13 14 14 15 14 14 13 13 14 15 13 13 12 10 10 10 9 10 9 9 10 12 13 13 12 13 12 13 12 12 12 12 13 13 13 13
11 13 13 13 14 14 15 14 12 13 13 14 15 14 13 13 13 13 12 11 10 9 8 8 7 8 7 8 8 9 9 10 12 12 13 13 13 12 12 13 12 13 13 12
11 11 11 12 14 14 14 14 13 13 13 15 14 13 13 13 12 11 10 9 8 7 6 5 6 6 5 5 5 5 6 7 7 7 8 9 10 12 12 12 12 12 12 12
9 10 10 13 15 16 15 16 15 15 15 14 13 11 12 12 10 9 8 7 6 5 4 4 4 4 4 4 4 4 4 3 4 4 5 6 6 7 8 10 12 12 12 12
9 10 11 13 15 14 14 14 15 13 15 13 12 11 9 9 8 7 6 5 4 3 3 2 3 3 3 3 3 3 2 1 1 2 3 3 3 3 4 5 7 9 12 12
7 9 8 12 14 14 15 13 12 14 13 13 13 11 8 7 6 5 4 4 3 2 1 1 1 3 3 2 2 1 1 -0 -0 -0 0 0 0 1 2 3 4 5 7 10
8 9 9 12 11 13 13 12 11 11 11 12 9 9 7 5 4 3 3 3 2 1 -0 -1 -1 0 0 1 1 0 -1 -2 -2 -2 -2 -2 -1 -1 -0 1 2 2 3 2
8 8 9 10 11 12 9 9 9 9 9 8 7 6 5 4 3 2 1 1 0 -1 -2 -2 -2 -2 -1 -1 -1 -1 -2 -3 -3 -4 -3 -3 -3 -3 -2 -1 -0 -1 -1 -2
9 9 9 9 9 9 9 9 9 8 8 7 6 5 4 2 1 0 -1 -1 -2 -2 -3 -4 -4 -3 -3 -3 -2 -2 -3 -4 -4 -4 -4 -4 -3 -4 -3 -3 -2 -2 -2 -3
8 9 8 8 7 7 7 5 5 6 6 6 4 3 2 1 -0 -1 -2 -3 -3 -3 -3 -3 -4 -4 -4 -3 -2 -3 -3 -4 -4 -4 -5 -5 -5 -4 -4 -4 -4 -4 -4 -4
7 6 6 6 6 6 5 4 3 2 2 2 1 0 -0 -1 -2 -3 -4 -4 -4 -4 -4 -5 -5 -5 -5 -4 -4 -4 -4 -4 -5 -5 -5 -5 -6 -6 -6 -5 -4 -4 -4 -4
6 4 4 3 4 3 2 1 1 1 -1 -1 -1 -1 -2 -3 -4 -4 -5 -5 -5 -5 -5 -6 -6 -6 -6 -5 -5 -5 -5 -6 -6 -6 -6 -6 -6 -7 -7 -7 -7 -6 -6 -6
5 2 2 1 1 1 1 0 -0 -1 -2 -3 -4 -4 -4 -4 -5 -5 -6 -6 -7 -7 -7 -7 -7 -7 -7 -6 -7 -6 -6 -6 -7 -7 -7 -7 -8 -8 -9 -8 -9 -8 -8 -7
2 3 3 1 1 1 0 -1 -2 -3 -4 -4 -5 -6 -6 -7 -8 -8 -8 -8 -9 -9 -9 -8 -8 -8 -7 -7 -7 -7 -8 -8 -8 -8 -8 -8 -9 -9 -10 -10 -10 -11 -10 -10
1 2 1 1 0 -0 -1 -1 -2 -3 -4 -5 -6 -7 -8 -9 -10 -10 -10 -9 -9 -10 -10 -9 -9 -9 -8 -7 -7 -8 -8 -8 -8 -9 -9 -9 -9 -10 -10 -11 -12 -12 -10 -9
1 0 0 -1 -2 -3 -3 -3 -3 -4 -5 -6 -7 -8 -10 -10 -11 -12 -12 -11 -12 -12 -11 -10 -10 -9 -8 -8 -8 -8 -9 -9 -9 -9 -9 -10 -10 -11 -12 -12 -13 -14 -14 -13
-0 -0 -1 -2 -3 -4 -5 -6 -6 -7 -8 -9 -9 -10 -11 -11 -12 -12 -12 -12 -12 -12 -11 -11 -10 -10 -9 -9 -8 -9 -9 -10 -10 -10 -11 -11 -12 -12 -13 -13 -14 -15 -15 -14
-4 -4 -4 -3 -4 -4 -5 -6 -7 -8 -9 -10 -11 -11 -12 -12 -13 -13 -13 -12 -12 -12 -12 -12 -11 -10 -10 -10 -10 -10 -10 -10 -11 -11 -11 -12 -12 -12 -13 -14 -14 -15 -15 -14
-4 -4 -5 -5 -6 -6 -7 -8 -9 -10 -11 -11 -11 -13 -13 -13 -13 -13 -13 -13 -13 -14 -13 -12 -11 -11 -11 -11 -10 -11 -11 -11 -12 -12 -12 -12 -13 -13 -14 -14 -15 -15 -16 -16
-6 -6 -7 -8 -8 -9 -10 -10 -10 -11 -11 -11 -12 -12 -13 -13 -13 -13 -14 -15 -15 -14 -13 -13 -12 -12 -12 -12 -11 -11 -12 -12 -13 -13 -13 -14 -14 -14 -15 -15 -15 -16 -16 -17
-11 -11 -11 -11 -11 -10 -10 -10 -10 -11 -11 -11 -12 -13 -13 -14 -14 -14 -14 -15 -15 -14 -13 -13 -13 -13 -13 -13 -13 -13 -13 -13 -13 -14 -14 -14 -15 -15 -16 -16 -16 -16 -17 -17
-10 -11 -10 -10 -10 -11 -10 -10 -11 -11 -11 -12 -12 -13 -13 -14 -14 -15 -15 -15 -15 -14 -14 -14 -14 -14 -14 -14 -14 -14 -14 -15 -15 -15 -15 -15 -16 -16 -16 -17 -17 -17 -17 -18
-10 -10 -10 -10 -10 -11 -11 -11 -11 -11 -11 -12 -12 -13 -13 -14 -14 -14 -15 -15 -15 -15 -15 -15 -15 -15 -15 -15 -15 -15 -15 -15 -16 -16 -16 -16 -17 -17 -17 -17 -18 -18 -18 -18
-9 -10 -10 -10 -10 -11 -11 -11 -11 -11 -12 -12 -12 -13 -13 -14 -14 -15 -15 -15 -15 -15 -15 -15 -15 -15 -16 -16 -16 -16 -16 -16 -16 -17 -17 -17 -17 -18 -18 -18 -19 -19 -19 -19
-9 -9 -9 -10 -9 -10 -10 -11 -11 -11 -12 -12 -13 -13 -14 -14 -14 -14 -15 -15 -15 -15 -16 -16 -16 -16 -16 -16 -17 -17 -17 -17 -17 -17 -18 -18 -18 -18 -19 -19 -19 -20 -20 -20
-8 -8 -9 -9 -9 -9 -9 -10 -10 -11 -12 -13 -13 -13 -14 -14 -14 -15 -15 -15 -15 -15 -16 -16 -16 -16 -17 -17 -17 -17 -17 -18 -18 -18 -18 -18 -19 -19 -19 -19 -20 -20 -20 -21
-9 -9 -10 -10 -10 -10 -10 -10 -11 -12 -12 -13 -13 -14 -14 -14 -14 -15 -15 -15 -15 -16 -16 -16 -17 -17 -17 -17 -17 -18 -18 -18 -18 -18 -18 -19 -19 -19 -19 -20 -20 -20 -21 -21

GFSNGP_925_temp_093.txt.gz
Temp
13 13 13 13 13 14 13 14 13 14 15 15 15 14 14 12 11 9 8 7 6 6 6 6 5 5 5 6 8 12 12 12 12 12 12 12 12 13 13 14 13 13 12 12
12 12 12 13 14 13 13 14 14 14 14 16 14 13 13 12 10 8 7 6 5 5 5 5 4 4 4 3 4 4 5 6 7 10 10 10 11 12 12 12 14 13 13 13
12 12 12 12 13 14 14 14 14 14 15 15 11 9 10 9 8 7 5 4 4 4 3 3 4 4 3 3 2 2 2 2 3 5 5 6 7 8 9 9 10 11 11 12
11 11 10 13 14 14 13 14 13 14 14 14 10 8 6 7 6 5 4 3 2 1 1 1 2 3 3 2 2 1 0 1 1 2 2 3 3 3 4 5 6 6 7 7
10 11 12 13 12 12 12 13 10 11 12 12 9 8 5 4 4 3 2 2 0 -0 -1 -0 1 2 2 2 0 -0 -0 -0 -0 0 1 1 1 1 2 3 3 2 1 2
9 10 9 11 11 12 12 13 9 10 13 11 11 11 5 2 1 1 1 0 -0 -1 -2 -1 -1 0 1 1 -0 -1 -1 -1 -1 -1 -1 -1 -1 -0 1 1 0 -1 -2 -2
8 9 11 9 10 11 12 11 9 8 7 8 5 5 2 1 -0 -1 -0 -0 -1 -1 -2 -2 -2 -1 -1 -1 -1 -2 -2 -3 -3 -2 -2 -2 -2 -2 -1 -1 -1 -2 -3 -3
9 9 8 8 11 11 9 8 7 6 5 4 3 2 1 -0 -1 -1 -1 -1 -1 -2 -3 -3 -3 -2 -2 -2 -2 -3 -3 -4 -4 -4 -3 -3 -3 -3 -3 -3 -3 -3 -3 -3
8 8 6 5 5 4 5 5 5 4 3 3 2 0 -1 -2 -2 -2 -2 -2 -2 -2 -3 -4 -4 -4 -4 -3 -3 -3 -4 -4 -5 -5 -5 -4 -4 -4 -3 -3 -3 -4 -4 -4
7 6 4 4 4 3 2 1 1 2 2 1 0 -1 -2 -2 -3 -3 -3 -3 -3 -3 -4 -5 -5 -6 -5 -4 -4 -4 -4 -4 -5 -5 -5 -5 -5 -5 -5 -4 -4 -4 -4 -4
6 5 4 3 2 2 1 1 -0 -1 0 0 -0 -1 -1 -2 -3 -4 -4 -4 -4 -5 -5 -6 -6 -6 -7 -6 -4 -4 -5 -5 -5 -6 -6 -6 -7 -6 -6 -6 -6 -5 -6 -5
5 3 3 1 0 -0 -1 -2 -2 -1 -2 -2 -2 -2 -3 -4 -5 -5 -5 -5 -6 -6 -6 -7 -7 -8 -8 -7 -6 -5 -5 -6 -6 -6 -7 -7 -7 -8 -8 -8 -8 -7 -7 -7
3 2 1 -0 -1 -1 -1 -2 -2 -2 -3 -3 -4 -4 -5 -5 -6 -6 -7 -7 -7 -8 -8 -8 -8 -9 -9 -8 -7 -8 -7 -7 -7 -7 -8 -8 -8 -8 -8 -10 -11 -10 -9 -9
1 2 1 -0 -1 -1 -2 -3 -4 -4 -5 -5 -6 -7 -7 -8 -8 -8 -8 -8 -9 -9 -9 -9 -10 -10 -9 -8 -7 -7 -8 -8 -9 -10 -9 -10 -10 -10 -10 -10 -10 -11 -12 -11
1 1 0 -1 -2 -2 -2 -3 -3 -4 -5 -6 -7 -8 -8 -9 -10 -10 -10 -10 -10 -10 -11 -11 -11 -11 -9 -8 -8 -8 -9 -9 -9 -10 -10 -10 -11 -11 -11 -11 -12 -12 -12 -12
-0 -0 -1 -2 -3 -4 -4 -4 -4 -6 -7 -8 -8 -9 -10 -10 -11 -12 -12 -12 -11 -12 -12 -11 -12 -11 -10 -9 -9 -10 -10 -9 -10 -10 -11 -11 -11 -11 -12 -12 -13 -13 -14 -14
-0 -1 -2 -3 -4 -5 -5 -6 -7 -8 -9 -9 -10 -11 -11 -11 -12 -12 -13 -13 -12 -13 -13 -13 -12 -11 -10 -10 -9 -11 -11 -11 -11 -11 -11 -12 -12 -12 -13 -13 -14 -15 -16 -16
-4 -4 -4 -4 -4 -5 -6 -7 -8 -9 -10 -11 -11 -12 -12 -12 -13 -13 -13 -12 -12 -12 -12 -12 -12 -11 -11 -10 -10 -11 -11 -11 -12 -12 -12 -13 -13 -14 -14 -14 -15 -15 -16 -16
-5 -5 -5 -6 -7 -7 -8 -9 -10 -11 -12 -12 -12 -13 -14 -14 -14 -14 -13 -13 -13 -13 -14 -13 -13 -12 -12 -12 -11 -12 -12 -12 -13 -13 -14 -14 -14 -15 -15 -15 -16 -16 -17 -17
-7 -8 -8 -9 -9 -10 -11 -11 -11 -12 -12 -12 -13 -13 -14 -14 -14 -14 -14 -14 -15 -14 -14 -13 -13 -13 -13 -12 -12 -13 -13 -14 -14 -15 -15 -15 -15 -16 -16 -17 -17 -17 -18 -18
-11 -11 -12 -12 -12 -11 -11 -11 -11 -12 -12 -12 -12 -13 -14 -14 -14 -14 -14 -13 -15 -14 -14 -14 -14 -14 -14 -14 -14 -14 -14 -15 -15 -16 -16 -16 -16 -17 -17 -17 -18 -18 -18 -19
-12 -11 -11 -11 -11 -12 -11 -11 -11 -12 -12 -13 -14 -14 -14 -15 -15 -15 -15 -14 -15 -15 -15 -15 -15 -15 -15 -14 -15 -15 -16 -16 -16 -17 -17 -17 -17 -18 -18 -18 -19 -19 -19 -19
-11 -11 -11 -11 -11 -12 -11 -11 -11 -11 -12 -12 -13 -13 -13 -14 -14 -14 -14 -15 -15 -15 -16 -16 -16 -16 -16 -16 -16 -16 -16 -16 -17 -17 -17 -17 -18 -18 -19 -19 -19 -19 -20 -20
-11 -11 -11 -11 -11 -11 -11 -12 -11 -11 -12 -12 -13 -13 -14 -14 -15 -15 -15 -15 -16 -16 -16 -16 -16 -16 -17 -17 -17 -17 -17 -17 -17 -18 -18 -18 -18 -19 -19 -19 -20 -20 -20 -20
-10 -10 -11 -11 -10 -10 -11 -11 -11 -12 -12 -12 -13 -13 -14 -14 -14 -15 -15 -15 -16 -16 -16 -16 -16 -17 -17 -17 -17 -18 -18 -18 -18 -18 -18 -19 -19 -19 -19 -20 -20 -20 -20 -21
-10 -9 -10 -10 -9 -9 -10 -10 -10 -11 -12 -13 -13 -13 -14 -14 -15 -15 -15 -15 -16 -16 -16 -16 -17 -17 -17 -17 -17 -18 -18 -18 -18 -18 -19 -19 -19 -19 -20 -20 -20 -20 -20 -21
-9 -10 -10 -10 -10 -10 -11 -11 -11 -11 -12 -13 -13 -14 -14 -14 -15 -15 -15 -15 -16 -16 -16 -16 -16 -17 -17 -17 -18 -18 -18 -18 -18 -19 -19 -19 -19 -19 -19 -20 -20 -20 -21 -21

GFSNGP_925_temp_096.txt.gz
Temp
16 16 17 17 17 16 17 17 16 18 17 18 16 15 15 11 10 9 8 6 4 3 4 5 5 4 5 5 6 10 11 10 12 12 13 13 14 15 14 14 14 13 13 13
14 15 16 16 16 16 16 16 17 17 18 18 15 13 9 8 8 7 5 4 4 2 2 4 4 4 3 3 3 4 4 4 5 7 10 10 12 12 13 12 12 13 13 13
14 15 15 15 15 16 17 17 17 16 17 18 14 10 8 7 6 5 4 3 2 1 1 2 3 2 2 2 1 1 2 2 2 3 4 5 6 8 8 8 9 10 10 10
13 14 13 15 16 16 16 15 15 16 16 15 10 7 5 5 5 4 3 2 1 0 -0 0 1 2 1 1 1 1 1 1 1 2 1 2 3 3 4 5 4 4 4 3
13 14 14 14 13 13 14 14 13 12 14 10 9 8 4 3 2 2 1 1 1 -0 -1 -0 0 1 1 1 0 0 0 0 1 0 1 1 1 2 2 2 1 -0 -1 -0
13 12 12 12 13 14 14 14 10 10 11 11 9 11 5 2 0 0 -0 1 2 1 -0 -0 -0 -0 0 0 -0 -1 -1 -1 -0 -0 0 0 1 2 1 0 -0 -1 -2 -2
11 12 13 10 13 14 14 11 9 8 6 5 4 3 1 0 -0 -1 1 1 1 1 1 -1 -1 -0 -0 -1 -2 -2 -2 -1 -2 -2 -1 -1 -1 -0 0 0 -0 -1 -2 -2
11 11 11 6 12 11 6 6 6 5 4 3 2 1 -0 -1 -1 -1 1 1 0 -0 -1 -1 -2 -1 -1 -1 -1 -2 -3 -3 -3 -3 -2 -2 -2 -1 -1 -1 -1 -1 -1 -2
8 7 5 4 4 3 3 3 4 4 3 3 1 0 -0 -1 -2 -2 -2 -0 -0 -1 -2 -3 -3 -2 -2 -3 -2 -2 -2 -2 -2 -3 -3 -3 -2 -2 -2 -2 -2 -2 -2 -2
7 5 4 4 3 2 2 2 1 2 2 2 1 -0 -1 -1 -1 -1 -1 -1 -0 -1 -1 -3 -3 -4 -4 -3 -3 -2 -3 -3 -3 -4 -4 -3 -4 -4 -3 -3 -3 -3 -3 -3
6 5 5 4 2 2 2 2 1 2 2 2 2 2 2 1 0 -1 -1 -1 -2 -2 -3 -3 -4 -4 -4 -3 -2 -2 -3 -3 -4 -4 -5 -6 -7 -6 -6 -6 -5 -4 -5 -5
6 4 4 2 1 0 0 -0 1 2 1 1 1 1 -0 -1 -2 -2 -3 -3 -3 -3 -4 -5 -5 -6 -6 -5 -3 -2 -3 -3 -4 -4 -4 -4 -6 -7 -8 -8 -8 -7 -7 -6
3 2 1 0 -0 -0 0 1 1 1 0 -0 -1 -1 -2 -2 -3 -4 -4 -4 -4 -5 -5 -5 -6 -7 -7 -7 -7 -6 -5 -4 -5 -4 -4 -4 -5 -4 -6 -9 -10 -10 -9 -9
2 2 2 2 2 2 1 -0 -1 -1 -2 -2 -3 -4 -4 -5 -5 -6 -6 -7 -7 -7 -7 -7 -8 -8 -8 -8 -7 -7 -7 -7 -6 -6 -6 -6 -6 -6 -6 -6 -7 -9 -11 -11
2 3 3 1 1 1 0 0 0 -1 -2 -3 -4 -5 -5 -6 -7 -8 -7 -7 -7 -8 -8 -8 -9 -9 -9 -8 -8 -8 -6 -7 -7 -7 -8 -7 -7 -7 -7 -7 -7 -8 -8 -9
2 2 1 1 -0 -1 -1 -1 -2 -3 -4 -5 -6 -7 -7 -8 -9 -9 -10 -10 -8 -9 -10 -11 -10 -11 -11 -9 -7 -7 -8 -9 -8 -7 -7 -7 -7 -7 -8 -8 -8 -9 -11 -12
2 1 0 -1 -1 -2 -3 -4 -4 -5 -7 -7 -8 -8 -9 -9 -10 -10 -11 -11 -12 -11 -11 -11 -11 -12 -11 -11 -8 -7 -7 -8 -8 -8 -8 -8 -8 -8 -9 -9 -10 -11 -13 -15
-1 -2 -2 -1 -2 -3 -4 -5 -6 -6 -7 -8 -10 -11 -11 -10 -10 -11 -11 -12 -12 -12 -12 -12 -12 -12 -11 -11 -9 -8 -8 -8 -8 -9 -9 -9 -9 -10 -10 -10 -11 -11 -12 -14
-2 -3 -4 -4 -4 -4 -5 -6 -7 -9 -10 -11 -11 -11 -12 -12 -12 -12 -12 -11 -11 -10 -12 -13 -12 -12 -12 -12 -10 -9 -9 -9 -9 -10 -10 -11 -11 -11 -11 -11 -12 -12 -13 -13
-5 -5 -6 -6 -7 -7 -9 -10 -10 -11 -11 -12 -12 -11 -12 -13 -13 -13 -12 -12 -13 -13 -13 -13 -12 -12 -12 -13 -11 -10 -10 -10 -11 -11 -11 -11 -11 -12 -13 -14 -13 -13 -14 -14
-8 -8 -9 -10 -10 -11 -11 -11 -11 -11 -12 -12 -11 -13 -13 -13 -14 -13 -10 -9 -12 -14 -13 -13 -13 -12 -12 -12 -11 -12 -12 -12 -12 -12 -12 -12 -13 -13 -13 -14 -14 -14 -14 -15
-9 -9 -10 -10 -10 -10 -11 -11 -12 -12 -12 -13 -13 -13 -13 -12 -13 -13 -14 -12 -12 -14 -13 -13 -14 -15 -14 -14 -13 -13 -13 -13 -13 -13 -13 -13 -14 -14 -14 -15 -15 -15 -16 -16
-8 -9 -9 -10 -9 -9 -10 -11 -11 -12 -12 -13 -13 -12 -11 -11 -11 -10 -10 -13 -13 -14 -13 -15 -16 -15 -15 -14 -14 -14 -14 -14 -14 -15 -15 -15 -15 -15 -15 -15 -16 -16 -16 -17
-8 -8 -9 -9 -9 -8 -8 -9 -10 -11 -12 -12 -12 -13 -12 -10 -11 -12 -14 -14 -15 -15 -15 -16 -16 -16 -16 -15 -15 -15 -15 -15 -15 -15 -16 -17 -16 -17 -16 -17 -17 -17 -18 -18
-8 -9 -9 -9 -7 -6 -8 -9 -9 -9 -10 -10 -11 -12 -12 -12 -12 -12 -13 -14 -15 -15 -15 -16 -16 -16 -16 -16 -16 -16 -16 -16 -16 -16 -16 -16 -17 -17 -17 -17 -18 -18 -18 -19
-7 -6 -7 -8 -8 -7 -7 -8 -8 -8 -9 -9 -10 -12 -12 -13 -13 -13 -14 -15 -15 -15 -14 -15 -16 -16 -16 -16 -16 -16 -16 -16 -17 -17 -17 -17 -17 -18 -18 -18 -18 -18 -18 -19
-7 -8 -7 -8 -8 -9 -9 -9 -9 -8 -9 -10 -10 -12 -12 -13 -13 -14 -14 -14 -14 -15 -15 -15 -16 -16 -16 -16 -16 -16 -17 -17 -17 -17 -17 -17 -18 -18 -18 -19 -19 -19 -19 -20

GFSNGP_925_temp_099.txt.gz
Temp
18 20 20 18 18 18 18 19 18 19 19 17 14 12 10 9 8 7 6 6 5 4 3 3 3 2 3 3 4 7 8 9 12 13 13 13 13 15 15 15 14 15 15 14
17 18 19 18 18 18 18 18 19 19 17 18 15 12 9 7 6 6 5 4 3 3 2 2 2 1 1 2 2 3 3 4 5 8 9 10 11 13 13 12 13 13 14 13
15 17 18 16 17 18 19 18 18 17 16 16 12 8 7 6 5 4 4 3 2 1 0 1 0 0 0 0 1 2 2 2 2 3 4 5 6 8 8 9 9 8 8 8
15 16 15 17 18 18 18 16 16 17 16 15 8 4 3 3 3 3 3 3 1 0 -0 -1 -0 0 -0 -0 -0 0 0 0 1 2 2 3 3 3 4 4 4 3 2 2
15 16 16 16 15 15 16 12 14 13 13 10 7 6 3 2 2 2 1 4 4 2 -0 -0 -0 -0 -0 -1 -1 -1 -1 -1 -0 0 1 2 1 1 0 1 -0 -1 -1 -0
15 15 14 11 13 16 17 13 11 12 10 8 8 10 4 1 1 1 1 4 3 3 1 1 -0 -0 -1 -1 -1 -2 -1 -2 -1 -0 -0 0 0 0 -0 0 -1 -1 -1 -1
14 14 13 8 11 14 14 9 9 9 7 6 4 3 1 0 0 -0 4 4 3 2 1 0 0 -1 -1 -1 -2 -2 -2 -2 -1 -1 -1 -0 -0 -0 0 -0 -0 -1 -2 -2
14 13 12 6 12 10 5 5 6 6 6 4 3 2 1 0 -1 -0 0 4 3 2 0 -1 -1 -1 -1 -2 -1 -2 -2 -2 -2 -1 -1 -1 -1 -1 -0 -0 -0 -0 -1 -2
8 7 5 5 4 3 4 3 4 4 5 4 2 1 0 -0 -1 0 3 4 3 2 1 -1 -1 -2 -1 -2 -2 -1 -2 -3 -4 -3 -3 -3 -2 -1 -2 -1 -1 -2 -2 -2
7 6 5 5 5 4 4 2 3 4 4 5 3 2 1 1 2 3 3 3 2 2 1 -0 -1 -2 -2 -1 -1 -2 -2 -2 -3 -4 -5 -5 -4 -5 -5 -3 -3 -3 -3 -3
6 6 5 5 4 4 4 4 5 5 4 5 5 4 4 4 3 2 2 2 1 0 -1 -1 -3 -3 -3 -2 -1 -1 -1 -2 -3 -4 -5 -6 -8 -6 -6 -6 -6 -5 -6 -5
6 4 4 3 2 2 2 2 4 4 4 4 4 4 3 3 1 1 0 -0 -1 -1 -2 -3 -4 -5 -5 -4 -3 -1 -2 -2 -3 -2 -3 -3 -5 -8 -8 -8 -7 -7 -7 -7
4 3 2 1 1 2 3 4 4 4 3 3 2 2 1 -0 -1 -2 -2 -2 -3 -3 -4 -5 -6 -6 -6 -6 -5 -5 -4 -3 -3 -3 -3 -3 -3 -4 -6 -9 -9 -9 -9 -8
4 4 4 4 4 4 4 3 2 2 1 0 -1 -2 -3 -3 -4 -4 -5 -5 -5 -5 -6 -6 -7 -7 -7 -6 -6 -5 -5 -5 -5 -5 -5 -5 -5 -5 -5 -5 -6 -7 -10 -9
5 5 5 4 4 4 3 3 3 2 0 -1 -2 -2 -3 -4 -5 -6 -6 -5 -5 -6 -7 -7 -8 -9 -8 -7 -6 -7 -6 -6 -6 -6 -6 -6 -6 -6 -6 -6 -6 -7 -7 -8
4 4 4 3 2 2 2 1 1 -1 -2 -3 -4 -5 -5 -6 -7 -8 -8 -9 -8 -8 -9 -9 -9 -10 -9 -8 -6 -6 -6 -7 -6 -6 -6 -6 -6 -6 -6 -6 -7 -8 -9 -10
3 3 2 1 1 -0 -1 -2 -2 -4 -5 -5 -6 -7 -7 -7 -7 -8 -9 -10 -10 -10 -10 -10 -10 -10 -10 -9 -7 -6 -6 -6 -7 -6 -6 -6 -6 -6 -7 -7 -7 -9 -11 -12
2 1 1 1 0 -1 -2 -3 -4 -5 -6 -7 -8 -9 -9 -9 -9 -9 -10 -10 -10 -10 -11 -11 -11 -10 -10 -10 -8 -6 -6 -6 -6 -7 -7 -8 -7 -7 -8 -8 -8 -9 -10 -11
0 -0 -1 -2 -2 -2 -3 -5 -6 -8 -9 -9 -9 -9 -10 -10 -10 -11 -10 -10 -8 -8 -10 -11 -10 -10 -10 -10 -9 -7 -7 -7 -7 -7 -8 -8 -8 -8 -9 -9 -9 -10 -10 -11
-2 -3 -4 -4 -5 -5 -7 -8 -8 -9 -10 -10 -10 -10 -10 -11 -12 -11 -10 -11 -11 -12 -11 -12 -10 -10 -10 -10 -9 -8 -8 -8 -8 -9 -10 -9 -9 -9 -11 -12 -10 -10 -11 -12
-6 -7 -7 -8 -9 -9 -9 -9 -9 -9 -10 -11 -10 -11 -11 -11 -12 -12 -9 -6 -11 -13 -12 -11 -12 -12 -11 -11 -9 -9 -9 -9 -10 -10 -10 -10 -10 -10 -11 -11 -11 -12 -12 -12
-7 -7 -8 -8 -8 -9 -9 -9 -10 -10 -11 -12 -12 -12 -12 -9 -11 -10 -11 -11 -10 -12 -11 -11 -13 -14 -13 -12 -10 -11 -11 -11 -10 -10 -11 -11 -11 -11 -12 -12 -12 -13 -13 -13
-7 -7 -7 -8 -7 -8 -8 -9 -10 -10 -11 -12 -11 -10 -9 -9 -9 -8 -8 -11 -11 -12 -11 -13 -15 -15 -14 -12 -12 -12 -12 -12 -12 -12 -12 -13 -13 -13 -13 -13 -13 -14 -14 -14
-6 -6 -7 -7 -8 -7 -7 -8 -8 -9 -10 -10 -11 -12 -11 -8 -9 -10 -11 -13 -14 -14 -14 -15 -15 -15 -14 -13 -13 -13 -13 -13 -13 -13 -13 -14 -14 -14 -14 -15 -15 -15 -15 -15
-6 -7 -7 -7 -5 -5 -6 -7 -7 -7 -8 -7 -9 -9 -10 -10 -10 -10 -11 -12 -14 -14 -13 -14 -15 -15 -14 -14 -14 -14 -14 -13 -14 -14 -14 -14 -14 -14 -15 -15 -16 -16 -16 -16
-5 -4 -5 -6 -6 -5 -5 -6 -5 -6 -6 -6 -7 -8 -10 -11 -11 -12 -12 -13 -13 -13 -13 -13 -14 -14 -14 -14 -14 -14 -15 -14 -14 -14 -15 -15 -15 -15 -15 -16 -16 -16 -16 -16
-6 -7 -5 -5 -6 -6 -7 -7 -8 -7 -7 -8 -8 -9 -10 -11 -11 -12 -12 -12 -12 -13 -13 -13 -14 -14 -14 -14 -15 -14 -15 -14 -15 -15 -16 -15 -15 -15 -16 -16 -17 -17 -17 -17

GFSNGP_925_temp_102.txt.gz
Temp
14 16 17 14 14 15 18 18 13 17 15 13 11 10 9 7 7 6 6 5 3 3 3 2 2 1 1 1 2 3 4 7 8 12 14 14 14 15 15 15 15 15 14 13
11 18 15 15 17 17 18 18 18 15 12 12 11 8 7 6 6 5 4 3 2 2 2 2 1 1 1 1 1 1 2 3 4 6 8 10 12 13 13 13 13 13 11 11
14 18 17 15 17 17 16 15 15 12 12 12 8 6 5 5 4 4 4 3 1 1 1 0 -0 -0 0 0 0 0 1 1 1 2 3 4 5 6 8 9 10 8 6 7
14 15 12 15 17 15 14 13 14 14 12 8 5 3 3 2 3 2 3 4 2 0 -0 -1 -1 -0 -1 -0 -0 -0 -0 0 1 1 1 1 1 1 1 3 3 3 2 2
14 15 14 15 13 12 11 9 11 12 11 8 5 4 2 1 2 2 2 5 4 3 1 0 -1 -1 -1 -2 -1 -1 -1 -1 -0 0 0 0 0 -0 -0 -0 -1 -1 -0 -0
16 15 12 9 10 13 14 8 8 9 8 8 7 9 3 1 1 1 4 5 4 3 2 1 -0 -1 -1 -2 -2 -2 -2 -2 -1 -0 -0 -0 0 -0 -0 -0 -1 -2 -2 -1
14 14 10 7 10 12 13 7 7 7 6 5 3 2 1 1 0 -0 1 5 4 2 1 -0 0 -1 -1 -1 -2 -2 -3 -2 -2 -1 -1 -0 -0 -0 -1 -1 -1 -2 -3 -3
11 12 10 6 10 8 5 4 5 5 5 3 2 1 1 -0 -0 1 2 5 4 2 1 -0 -1 -0 -1 -2 -2 -3 -3 -3 -3 -3 -3 -2 -1 -1 -1 -1 -2 -2 -2 -3
8 7 5 5 5 4 4 4 4 4 5 4 2 1 0 0 0 2 3 3 3 2 1 -0 -1 -1 -1 -1 -2 -2 -3 -5 -5 -5 -5 -4 -4 -4 -3 -2 -2 -3 -3 -4
7 6 5 5 5 4 4 3 5 6 6 5 3 2 2 3 3 4 3 3 2 1 -0 -2 -2 -2 -2 -1 -1 -2 -2 -4 -5 -6 -6 -6 -6 -6 -6 -5 -5 -5 -4 -5
6 6 5 4 4 4 4 5 5 6 6 5 5 5 4 4 3 2 2 1 -0 -1 -2 -3 -4 -4 -4 -3 -1 -1 -2 -2 -3 -5 -6 -7 -7 -7 -7 -7 -6 -6 -7 -6
6 4 4 3 2 3 3 4 5 5 5 4 4 4 3 2 1 0 -0 -1 -2 -3 -3 -4 -5 -6 -5 -5 -4 -3 -3 -3 -3 -3 -4 -6 -7 -8 -7 -7 -7 -7 -7 -7
4 3 2 2 2 4 4 4 4 4 3 3 1 1 -0 -2 -2 -3 -3 -3 -4 -5 -5 -6 -6 -7 -6 -6 -5 -5 -4 -4 -4 -4 -4 -4 -4 -6 -8 -8 -8 -8 -8 -7
4 5 4 4 5 5 5 5 4 3 2 1 -1 -3 -3 -4 -5 -5 -5 -5 -5 -6 -7 -7 -8 -8 -7 -6 -5 -5 -5 -5 -5 -5 -5 -5 -5 -5 -5 -6 -7 -8 -8 -8
6 6 6 5 5 5 5 4 4 2 0 -1 -2 -3 -4 -5 -6 -7 -7 -7 -6 -7 -8 -8 -9 -9 -8 -7 -6 -6 -6 -6 -5 -5 -5 -5 -5 -6 -6 -6 -7 -8 -8 -8
5 5 5 4 3 2 2 1 -0 -2 -3 -4 -5 -5 -6 -6 -7 -8 -9 -9 -8 -9 -9 -10 -10 -10 -9 -7 -6 -6 -6 -6 -6 -6 -6 -6 -6 -6 -6 -7 -9 -10 -11 -10
4 3 3 2 1 0 -1 -2 -3 -4 -5 -6 -7 -8 -8 -7 -8 -8 -9 -9 -10 -10 -10 -10 -10 -10 -9 -8 -7 -6 -6 -6 -6 -6 -7 -6 -7 -7 -7 -7 -9 -11 -11 -10
2 2 1 1 0 -1 -2 -3 -4 -5 -7 -8 -8 -9 -9 -9 -9 -9 -10 -9 -9 -10 -11 -11 -10 -9 -10 -8 -7 -6 -6 -6 -6 -7 -7 -8 -7 -7 -8 -8 -8 -10 -10 -10
1 -0 -1 -1 -1 -2 -4 -6 -7 -8 -8 -9 -9 -9 -10 -11 -11 -11 -10 -9 -9 -9 -11 -11 -10 -9 -9 -9 -8 -7 -7 -7 -7 -8 -8 -8 -9 -9 -9 -9 -9 -10 -10 -11
-2 -3 -4 -5 -5 -6 -7 -7 -8 -9 -9 -9 -9 -10 -10 -11 -11 -11 -10 -10 -11 -11 -11 -11 -11 -10 -10 -9 -9 -8 -8 -8 -8 -9 -9 -9 -9 -10 -10 -10 -10 -11 -11 -12
-6 -7 -7 -8 -8 -8 -9 -9 -9 -9 -11 -10 -10 -11 -11 -11 -10 -10 -9 -8 -11 -11 -10 -10 -12 -12 -11 -11 -10 -9 -9 -9 -9 -9 -10 -10 -10 -10 -11 -11 -11 -12 -12 -12
-6 -7 -8 -8 -8 -8 -8 -9 -10 -10 -11 -11 -11 -11 -11 -10 -10 -10 -10 -10 -10 -11 -11 -11 -13 -13 -13 -12 -11 -11 -11 -11 -11 -11 -11 -11 -11 -11 -12 -12 -12 -13 -13 -13
-6 -7 -7 -7 -7 -7 -8 -9 -9 -10 -10 -11 -11 -10 -10 -9 -8 -8 -9 -11 -11 -12 -12 -13 -13 -14 -13 -13 -12 -12 -12 -12 -12 -12 -12 -13 -13 -13 -13 -14 -13 -14 -14 -15
-6 -6 -7 -7 -7 -7 -7 -8 -8 -9 -9 -9 -10 -10 -10 -9 -9 -9 -11 -12 -12 -13 -13 -14 -13 -14 -13 -13 -13 -13 -13 -13 -13 -13 -13 -13 -13 -14 -14 -14 -14 -15 -15 -15
-6 -6 -6 -6 -6 -6 -5 -6 -6 -6 -7 -7 -8 -9 -10 -9 -10 -10 -11 -11 -12 -13 -13 -14 -14 -14 -14 -13 -13 -14 -14 -13 -14 -14 -14 -14 -14 -14 -14 -15 -15 -15 -15 -16
-5 -5 -5 -5 -5 -5 -5 -5 -5 -5 -6 -6 -6 -7 -9 -10 -10 -11 -11 -12 -12 -12 -13 -13 -13 -14 -14 -14 -14 -14 -14 -14 -14 -14 -15 -15 -15 -14 -15 -15 -15 -16 -16 -16
-5 -5 -4 -4 -4 -5 -6 -7 -8 -7 -8 -9 -9 -9 -9 -10 -10 -11 -11 -12 -12 -12 -12 -12 -13 -13 -14 -14 -14 -14 -14 -14 -14 -15 -15 -15 -15 -15 -15 -16 -16 -17 -17 -17

GFSNGP_925_temp_105.txt.gz
Temp
12 12 12 11 11 12 13 14 13 11 11 10 9 8 7 6 5 5 4 3 2 2 1 1 1 1 1 1 1 1 2 2 4 7 12 13 14 15 15 14 14 13 13 12
11 10 11 10 11 13 12 12 12 11 10 8 7 6 5 5 5 4 4 3 2 1 1 0 -0 -0 -0 -0 0 0 1 2 2 3 5 7 9 11 11 12 13 12 11 11
11 14 14 11 11 11 10 11 12 10 9 7 5 4 3 3 3 3 4 3 1 0 0 -0 -1 -1 -1 -1 -0 1 -0 -0 1 1 1 2 3 5 4 4 5 6 6 6
12 13 12 9 10 10 9 8 10 10 7 5 4 2 2 2 2 2 3 3 1 0 -0 -1 -1 -1 -2 -2 -1 -1 -0 0 -1 0 1 1 1 0 1 0 0 0 1 2
12 11 11 11 9 8 9 7 8 8 8 5 4 4 1 1 1 1 1 2 2 1 0 -0 -1 -1 -2 -2 -2 -2 -2 -1 -1 -1 -0 -0 -0 -1 -1 -0 -2 -2 -2 -1
12 12 10 8 7 8 10 7 6 6 5 5 6 5 2 1 0 1 1 2 1 -0 -0 -0 -1 -1 -2 -2 -3 -3 -3 -3 -2 -2 -1 -1 -1 -1 -1 -2 -2 -2 -2 -2
10 10 8 5 7 8 10 6 5 4 4 3 2 1 0 0 0 0 3 3 1 -0 -1 -1 -1 -1 -2 -2 -3 -3 -3 -4 -3 -3 -2 -2 -1 -2 -2 -2 -2 -3 -3 -3
8 8 7 5 7 6 5 4 4 4 3 2 2 1 0 0 0 1 3 2 1 -1 -2 -2 -2 -2 -2 -2 -3 -4 -4 -4 -4 -4 -3 -3 -3 -3 -2 -3 -3 -4 -4 -4
6 6 4 5 4 3 3 3 4 4 4 3 2 1 -1 -0 0 0 1 0 -0 -2 -3 -3 -4 -4 -3 -2 -2 -3 -4 -5 -6 -5 -5 -5 -4 -4 -4 -4 -4 -5 -5 -5
5 5 4 4 4 3 3 3 4 5 5 4 3 2 1 1 -0 0 -0 -1 -2 -3 -4 -4 -5 -5 -5 -4 -2 -3 -4 -5 -6 -6 -7 -6 -6 -6 -6 -6 -6 -5 -5 -5
5 4 4 3 2 3 4 5 5 5 4 5 4 3 2 1 0 -1 -2 -2 -3 -4 -5 -5 -6 -6 -5 -4 -3 -3 -4 -4 -5 -6 -7 -7 -7 -7 -7 -6 -6 -6 -6 -6
4 4 4 2 2 3 3 3 3 3 2 0 1 1 -1 -2 -3 -3 -4 -4 -5 -6 -6 -7 -7 -7 -6 -5 -5 -4 -4 -4 -4 -5 -6 -7 -8 -7 -7 -7 -7 -7 -6 -6
3 2 1 1 1 3 3 3 3 2 1 -1 -2 -2 -3 -4 -5 -5 -5 -6 -6 -7 -8 -8 -8 -8 -7 -6 -5 -5 -5 -5 -5 -5 -5 -5 -7 -7 -8 -8 -8 -7 -7 -7
4 3 2 2 4 5 4 4 2 0 -1 -3 -4 -5 -5 -6 -7 -7 -8 -7 -7 -8 -9 -9 -9 -8 -7 -6 -6 -5 -5 -5 -6 -5 -5 -5 -6 -6 -7 -8 -8 -8 -8 -8
5 5 5 5 3 2 1 1 -1 -2 -3 -4 -5 -6 -6 -7 -8 -9 -9 -8 -8 -9 -10 -10 -10 -9 -8 -7 -6 -6 -6 -6 -6 -6 -6 -6 -6 -6 -7 -8 -9 -9 -8 -8
5 5 3 2 0 -1 -2 -3 -4 -4 -5 -6 -7 -7 -7 -8 -9 -9 -9 -9 -10 -10 -10 -10 -10 -9 -8 -7 -6 -6 -6 -6 -6 -6 -6 -6 -6 -7 -8 -9 -10 -10 -10 -10
3 1 1 -1 -2 -3 -4 -4 -5 -6 -8 -8 -9 -8 -8 -8 -9 -9 -10 -10 -10 -10 -10 -10 -10 -9 -9 -8 -7 -6 -6 -6 -7 -7 -7 -7 -7 -8 -9 -9 -10 -10 -10 -10
-0 -1 -2 -1 -2 -3 -4 -6 -7 -8 -9 -9 -9 -9 -10 -10 -11 -10 -10 -9 -11 -11 -10 -10 -10 -9 -9 -8 -8 -7 -7 -7 -7 -8 -8 -8 -8 -8 -9 -10 -10 -11 -11 -11
-2 -4 -4 -4 -5 -6 -7 -8 -8 -9 -9 -9 -9 -10 -11 -11 -11 -11 -10 -10 -10 -10 -11 -11 -10 -10 -10 -9 -9 -8 -8 -8 -8 -8 -9 -9 -9 -9 -10 -10 -10 -11 -11 -12
-5 -6 -7 -7 -7 -8 -8 -8 -9 -9 -10 -10 -10 -10 -10 -11 -11 -10 -10 -11 -11 -11 -11 -11 -11 -11 -10 -10 -10 -9 -9 -9 -9 -10 -10 -10 -10 -10 -11 -11 -11 -12 -12 -13
-8 -8 -8 -9 -9 -8 -8 -9 -9 -10 -10 -10 -10 -11 -11 -10 -10 -10 -10 -11 -11 -11 -11 -12 -12 -11 -12 -11 -11 -11 -10 -10 -11 -11 -11 -11 -11 -11 -11 -12 -12 -12 -13 -13
-8 -8 -8 -8 -8 -9 -9 -9 -10 -10 -10 -10 -10 -10 -9 -9 -9 -9 -11 -11 -11 -11 -12 -12 -12 -12 -12 -12 -12 -12 -12 -12 -12 -12 -12 -12 -12 -12 -13 -13 -13 -13 -14 -14
-7 -8 -8 -8 -8 -8 -8 -8 -9 -9 -9 -9 -9 -9 -9 -9 -9 -10 -10 -11 -11 -11 -12 -13 -13 -13 -13 -13 -13 -13 -13 -13 -13 -13 -13 -13 -13 -13 -14 -14 -14 -14 -14 -15
-7 -7 -7 -7 -7 -7 -8 -7 -8 -8 -8 -8 -9 -9 -9 -10 -10 -10 -10 -11 -11 -12 -13 -13 -13 -13 -13 -13 -13 -13 -13 -14 -13 -13 -14 -14 -14 -14 -14 -14 -15 -15 -15 -15
-6 -6 -6 -7 -7 -7 -7 -7 -7 -7 -8 -8 -9 -9 -9 -10 -10 -10 -10 -11 -12 -12 -12 -13 -13 -13 -13 -13 -14 -14 -14 -14 -14 -14 -14 -14 -14 -14 -15 -15 -15 -15 -16 -16
-6 -6 -6 -6 -5 -5 -6 -6 -7 -7 -8 -8 -8 -9 -9 -10 -10 -10 -11 -11 -12 -12 -12 -13 -13 -13 -13 -14 -14 -14 -14 -14 -14 -14 -15 -15 -15 -15 -15 -15 -15 -16 -16 -16
-5 -5 -5 -5 -5 -6 -6 -7 -8 -9 -9 -9 -9 -9 -10 -10 -10 -11 -11 -11 -11 -12 -12 -12 -13 -13 -13 -14 -14 -14 -14 -15 -15 -15 -15 -15 -15 -15 -16 -16 -16 -16 -17 -17

GFSNGP_925_temp_108.txt.gz
Temp
10 10 11 10 10 11 12 11 11 10 9 8 7 6 5 5 5 5 4 3 2 1 1 0 0 -0 -0 -0 -0 1 1 1 2 2 4 7 11 14 13 13 13 13 13 12
10 10 11 10 9 10 10 10 10 9 7 6 5 5 4 4 4 4 3 1 1 1 0 0 -0 -1 -1 -1 -1 -0 0 0 1 1 1 2 3 5 11 12 12 12 12 11
11 11 10 9 8 8 8 8 9 9 7 5 4 3 3 3 3 3 2 1 -0 -0 -0 -1 -1 -1 -1 -2 -1 -1 -1 -1 -0 0 -0 0 0 0 2 5 7 7 7 7
11 11 9 7 7 8 7 7 7 7 6 4 3 2 2 2 2 2 2 1 -0 -1 -1 -1 -1 -2 -2 -2 -2 -2 -2 -2 -2 -1 -0 -1 0 -1 -0 -1 -1 1 2 3
11 11 9 9 7 6 8 6 5 6 5 3 2 3 1 1 1 1 1 -0 -1 -1 -1 -1 -2 -2 -3 -3 -3 -3 -3 -3 -2 -2 -1 -1 -1 -1 -1 -1 -1 -2 -2 -1
10 10 9 7 6 7 8 6 5 4 4 4 5 4 1 0 0 1 0 -0 -1 -2 -1 -2 -2 -2 -2 -4 -4 -4 -4 -4 -2 -2 -2 -2 -2 -2 -2 -2 -2 -1 -3 -2
9 9 8 4 5 7 9 5 4 3 2 2 2 1 0 0 -0 0 1 -1 -2 -3 -3 -3 -3 -3 -3 -3 -5 -5 -5 -4 -4 -3 -3 -2 -3 -3 -3 -3 -3 -3 -3 -3
7 7 7 4 5 6 5 4 4 3 3 2 1 1 -1 0 -2 -1 -1 -2 -3 -4 -4 -4 -4 -4 -3 -3 -4 -5 -5 -5 -5 -5 -4 -4 -4 -4 -4 -4 -4 -4 -4 -4
6 5 4 4 3 3 4 3 3 3 3 3 2 1 -1 -3 -3 -2 -2 -3 -4 -4 -5 -5 -5 -5 -4 -3 -3 -4 -5 -6 -6 -6 -6 -5 -5 -5 -5 -5 -5 -5 -4 -4
4 4 4 3 3 3 3 3 3 4 4 3 2 1 -1 -2 -3 -3 -3 -4 -5 -5 -5 -6 -6 -6 -5 -4 -4 -4 -4 -5 -6 -6 -7 -7 -6 -6 -6 -6 -6 -5 -5 -5
4 3 3 2 2 2 3 4 2 1 1 2 -0 -1 -2 -3 -3 -4 -4 -5 -6 -6 -6 -7 -7 -6 -5 -5 -4 -4 -5 -5 -6 -6 -7 -7 -7 -7 -6 -6 -6 -6 -6 -5
4 4 3 2 1 2 1 1 1 -0 -1 -2 -2 -3 -4 -4 -5 -5 -6 -6 -7 -7 -8 -8 -8 -7 -6 -5 -5 -5 -5 -5 -5 -6 -6 -7 -7 -7 -7 -7 -6 -6 -5 -5
2 2 -1 -1 -0 2 2 1 0 -1 -2 -3 -4 -5 -5 -6 -7 -6 -7 -7 -8 -9 -9 -9 -8 -8 -7 -6 -6 -5 -6 -5 -5 -5 -6 -7 -7 -8 -8 -7 -8 -8 -7 -6
2 2 2 2 1 2 1 -1 -2 -3 -4 -5 -5 -6 -7 -8 -8 -9 -9 -8 -9 -9 -10 -10 -9 -9 -8 -6 -6 -6 -6 -6 -6 -6 -6 -6 -7 -8 -8 -8 -8 -8 -8 -8
4 4 2 1 -0 -1 -2 -3 -4 -4 -5 -6 -6 -7 -7 -9 -9 -10 -9 -9 -9 -10 -10 -10 -10 -9 -9 -8 -6 -6 -6 -6 -6 -6 -6 -6 -7 -7 -8 -8 -9 -9 -9 -9
4 3 1 -1 -2 -3 -3 -4 -5 -6 -7 -7 -8 -8 -8 -9 -9 -10 -10 -10 -10 -11 -11 -10 -10 -9 -9 -8 -7 -6 -6 -6 -6 -7 -7 -7 -7 -8 -9 -10 -10 -10 -10 -10
1 1 -1 -3 -3 -4 -5 -6 -7 -8 -9 -9 -9 -9 -9 -9 -10 -10 -10 -10 -10 -10 -10 -10 -10 -10 -9 -8 -7 -7 -7 -7 -7 -7 -7 -8 -8 -9 -9 -10 -11 -11 -11 -11
-3 -3 -2 -3 -4 -5 -5 -6 -7 -8 -9 -9 -9 -10 -10 -10 -11 -11 -10 -10 -10 -10 -11 -11 -10 -10 -9 -9 -9 -8 -8 -8 -8 -8 -8 -8 -9 -9 -10 -10 -11 -11 -12 -12
-4 -5 -5 -5 -6 -6 -7 -8 -9 -9 -9 -9 -10 -10 -11 -11 -11 -11 -10 -10 -10 -11 -11 -11 -11 -10 -10 -10 -10 -9 -9 -9 -9 -9 -9 -9 -10 -10 -10 -11 -11 -12 -12 -13
-6 -7 -7 -7 -7 -8 -9 -9 -9 -9 -10 -10 -10 -10 -10 -10 -10 -10 -10 -11 -11 -11 -11 -12 -11 -11 -11 -11 -11 -10 -10 -10 -10 -10 -10 -10 -11 -11 -11 -11 -12 -12 -13 -13
-9 -9 -9 -9 -9 -9 -9 -9 -9 -10 -10 -10 -10 -10 -10 -10 -10 -10 -11 -11 -11 -11 -11 -12 -12 -12 -12 -12 -12 -12 -11 -11 -11 -11 -11 -11 -11 -12 -12 -12 -12 -13 -13 -14
-9 -9 -9 -9 -9 -9 -9 -9 -9 -9 -10 -10 -10 -10 -10 -9 -9 -10 -10 -11 -11 -11 -12 -12 -13 -13 -13 -13 -13 -12 -12 -12 -12 -12 -12 -12 -12 -13 -13 -13 -13 -14 -14 -14
-8 -8 -8 -8 -8 -8 -9 -9 -9 -9 -9 -9 -9 -9 -9 -9 -10 -10 -10 -10 -11 -12 -12 -13 -13 -13 -14 -14 -13 -13 -13 -13 -13 -13 -13 -13 -14 -14 -14 -14 -14 -14 -15 -15
-8 -8 -8 -8 -8 -8 -9 -8 -8 -8 -8 -8 -9 -9 -9 -9 -10 -10 -10 -10 -11 -12 -12 -13 -13 -13 -13 -14 -14 -14 -14 -14 -14 -14 -14 -14 -14 -14 -14 -15 -15 -15 -15 -16
-7 -7 -7 -7 -7 -7 -7 -7 -7 -8 -8 -8 -9 -8 -9 -9 -10 -10 -10 -11 -11 -12 -12 -12 -13 -13 -13 -14 -14 -14 -14 -14 -14 -14 -15 -15 -15 -15 -15 -15 -15 -15 -16 -16
-7 -6 -6 -6 -6 -6 -6 -7 -8 -8 -8 -9 -9 -9 -9 -9 -10 -11 -11 -11 -11 -12 -12 -12 -12 -13 -13 -14 -14 -14 -14 -14 -15 -15 -15 -15 -15 -15 -15 -15 -16 -16 -16 -16
-6 -6 -6 -6 -6 -6 -7 -7 -8 -8 -9 -9 -9 -9 -10 -10 -11 -11 -11 -11 -11 -11 -12 -12 -12 -13 -13 -13 -14 -14 -14 -14 -15 -15 -15 -15 -15 -16 -16 -16 -16 -16 -17 -17

GFSNGP_925_temp_111.txt.gz
Temp
9 9 9 9 10 11 11 10 10 8 7 6 5 5 4 4 4 3 2 1 1 1 1 0 -0 -1 -1 -1 -1 -0 -1 0 1 1 2 3 4 7 9 12 13 13 13 12
9 8 8 8 8 8 9 9 8 7 6 4 4 3 3 3 3 2 1 0 0 0 -0 -0 -1 -1 -2 -2 -2 -1 -1 -1 -1 0 0 2 1 2 3 4 7 10 12 12
10 11 10 9 7 7 7 7 8 8 6 4 3 3 2 2 2 1 0 -1 -1 -1 -1 -1 -1 -2 -3 -3 -3 -3 -2 -2 -1 -1 -1 -1 1 1 2 1 1 1 3 5
10 10 9 7 6 7 6 6 6 6 4 3 2 1 1 1 1 0 -1 -1 -1 -2 -2 -2 -2 -2 -4 -4 -4 -4 -3 -3 -3 -2 -2 -1 -1 -1 -0 1 0 -0 -0 -0
10 9 8 7 6 5 7 5 4 5 4 3 2 3 1 1 0 -0 -1 -2 -2 -2 -3 -3 -3 -3 -4 -5 -5 -5 -5 -4 -4 -3 -3 -2 -2 -2 -2 -1 -0 -1 -0 -1
9 9 9 6 5 6 7 6 4 3 3 3 4 3 1 0 -0 -0 -2 -2 -3 -4 -3 -4 -4 -3 -4 -5 -5 -6 -6 -5 -5 -4 -4 -3 -3 -3 -3 -3 -3 -3 -2 -1
8 8 7 4 4 6 8 5 4 3 2 1 1 0 -0 -1 -2 -2 -3 -3 -4 -5 -4 -5 -5 -4 -3 -4 -5 -5 -5 -5 -5 -5 -5 -4 -4 -3 -3 -3 -3 -3 -4 -3
7 7 6 3 5 6 4 4 3 3 2 1 1 -1 -2 -3 -4 -3 -4 -4 -4 -5 -5 -6 -6 -5 -4 -4 -4 -5 -5 -6 -6 -5 -5 -5 -5 -4 -4 -4 -4 -4 -4 -4
5 4 3 3 3 3 3 2 3 3 3 2 0 -2 -4 -5 -5 -4 -5 -5 -5 -5 -6 -6 -6 -6 -5 -5 -4 -4 -5 -6 -6 -6 -6 -6 -6 -5 -5 -5 -5 -4 -4 -4
4 4 3 3 2 2 3 1 1 3 3 2 -1 -2 -4 -4 -4 -5 -6 -6 -6 -6 -7 -7 -7 -7 -7 -6 -5 -5 -5 -5 -6 -7 -7 -7 -6 -6 -6 -6 -6 -5 -5 -4
4 3 3 2 1 2 2 1 -0 -0 -1 -1 -2 -3 -4 -4 -5 -6 -6 -7 -7 -8 -8 -8 -8 -7 -7 -6 -6 -5 -5 -6 -6 -6 -7 -7 -7 -6 -6 -6 -5 -5 -5 -5
2 3 3 1 1 1 0 -0 -1 -2 -3 -3 -3 -4 -5 -5 -6 -7 -7 -8 -8 -9 -9 -9 -8 -8 -7 -6 -6 -6 -6 -6 -6 -6 -6 -7 -7 -7 -7 -7 -7 -6 -6 -5
3 1 -1 0 -0 1 -0 -1 -2 -3 -4 -5 -5 -6 -6 -7 -7 -7 -8 -9 -9 -10 -10 -10 -9 -8 -8 -7 -6 -6 -6 -6 -6 -6 -7 -7 -7 -8 -7 -7 -8 -8 -7 -7
2 2 2 -0 -0 -1 -2 -3 -3 -5 -5 -6 -6 -7 -8 -8 -9 -9 -9 -9 -10 -10 -10 -10 -9 -9 -8 -7 -6 -6 -6 -6 -6 -6 -7 -7 -7 -8 -8 -8 -8 -8 -9 -9
3 2 0 -1 -2 -2 -3 -3 -4 -5 -5 -6 -7 -7 -8 -9 -10 -10 -10 -10 -10 -10 -10 -10 -10 -10 -9 -8 -7 -7 -7 -7 -7 -7 -7 -7 -8 -8 -8 -9 -9 -10 -9 -9
2 1 0 -1 -3 -3 -4 -4 -5 -6 -7 -8 -8 -8 -9 -10 -10 -10 -10 -10 -11 -12 -11 -11 -10 -10 -9 -8 -7 -7 -7 -7 -7 -7 -7 -8 -8 -9 -9 -10 -10 -11 -11 -11
-0 -1 -2 -3 -4 -5 -6 -6 -7 -8 -10 -10 -10 -10 -9 -10 -10 -10 -10 -10 -11 -11 -11 -11 -11 -10 -10 -9 -8 -8 -8 -8 -8 -8 -8 -8 -9 -9 -10 -10 -11 -11 -12 -12
-3 -2 -2 -3 -4 -5 -6 -7 -8 -9 -10 -10 -10 -10 -10 -10 -11 -11 -10 -10 -10 -10 -11 -11 -11 -11 -10 -10 -10 -9 -9 -9 -9 -9 -9 -9 -9 -10 -10 -11 -11 -12 -12 -13
-4 -4 -5 -5 -5 -6 -7 -8 -9 -9 -10 -10 -10 -10 -11 -11 -11 -11 -11 -11 -11 -11 -11 -11 -11 -11 -11 -11 -11 -10 -10 -10 -10 -10 -10 -10 -10 -10 -11 -11 -12 -12 -13 -13
-6 -6 -7 -7 -7 -8 -9 -9 -9 -9 -10 -10 -10 -10 -10 -10 -10 -10 -10 -10 -11 -11 -11 -11 -12 -12 -12 -12 -12 -11 -11 -11 -11 -11 -11 -11 -11 -11 -11 -12 -12 -13 -13 -13
-9 -9 -9 -9 -9 -9 -9 -9 -9 -9 -9 -10 -10 -10 -10 -10 -10 -10 -10 -10 -10 -11 -11 -12 -13 -13 -13 -13 -13 -13 -12 -12 -12 -12 -12 -12 -12 -12 -12 -12 -13 -13 -13 -14
-10 -10 -10 -9 -9 -9 -9 -9 -9 -9 -9 -9 -9 -10 -10 -10 -10 -10 -10 -10 -10 -11 -12 -12 -13 -13 -14 -14 -13 -13 -13 -13 -13 -13 -13 -13 -13 -13 -13 -13 -13 -14 -14 -14
-9 -9 -9 -9 -8 -8 -9 -9 -9 -9 -9 -9 -9 -9 -9 -9 -10 -10 -10 -10 -10 -11 -12 -12 -13 -13 -14 -14 -14 -14 -14 -14 -14 -14 -14 -14 -14 -14 -14 -14 -14 -15 -15 -15
-8 -8 -8 -8 -8 -8 -9 -7 -8 -8 -8 -8 -9 -9 -9 -9 -9 -9 -10 -10 -10 -11 -12 -12 -12 -13 -13 -14 -14 -14 -14 -14 -14 -14 -14 -14 -14 -15 -15 -15 -15 -15 -15 -16
-8 -8 -8 -8 -8 -8 -7 -7 -7 -8 -8 -8 -8 -9 -9 -9 -10 -10 -10 -11 -11 -11 -11 -12 -12 -13 -13 -13 -14 -14 -14 -14 -15 -15 -15 -15 -15 -15 -15 -15 -15 -16 -16 -16
-7 -7 -7 -7 -7 -7 -7 -6 -7 -8 -8 -9 -9 -9 -10 -10 -10 -11 -11 -11 -11 -11 -11 -12 -12 -12 -13 -13 -13 -14 -14 -14 -15 -15 -15 -15 -15 -15 -16 -16 -16 -16 -16 -16
-6 -7 -7 -6 -6 -6 -7 -7 -8 -9 -9 -9 -10 -10 -10 -11 -11 -11 -11 -11 -11 -11 -11 -12 -12 -12 -12 -13 -13 -13 -14 -14 -14 -15 -15 -15 -15 -16 -16 -16 -16 -16 -16 -17

GFSNGP_925_temp_114.txt.gz
Temp
8 8 8 7 8 9 9 9 8 6 6 5 4 3 3 2 2 1 1 1 0 0 -0 -1 -1 -2 -2 -2 -2 -2 -1 -1 -1 -0 -0 0 1 2 5 7 8 10 12 13
9 9 9 7 6 7 8 8 6 6 5 4 3 2 2 2 1 0 -0 -0 -0 -1 -1 -1 -2 -3 -3 -3 -3 -2 -2 -2 -2 -1 -1 -1 -1 0 1 4 4 4 5 7
10 10 10 8 6 6 6 6 7 7 5 3 2 2 1 1 0 -1 -1 -1 -1 -2 -2 -2 -3 -4 -4 -4 -4 -4 -3 -3 -3 -2 -2 -2 -2 -1 -1 -0 1 2 2 3
10 9 9 6 6 7 6 5 5 5 3 3 1 1 1 0 -1 -1 -2 -2 -3 -3 -3 -4 -3 -4 -5 -5 -5 -5 -5 -5 -4 -3 -3 -3 -2 -2 -2 -2 -2 -1 -0 0
10 9 8 7 5 5 6 5 4 5 4 3 2 2 -0 -0 -1 -2 -3 -3 -4 -4 -4 -5 -4 -4 -5 -5 -6 -6 -6 -6 -6 -5 -4 -3 -3 -3 -3 -3 -3 -3 -3 -2
9 9 8 5 5 5 6 6 3 3 2 3 3 3 -0 -2 -3 -3 -4 -4 -5 -5 -5 -5 -5 -4 -4 -5 -6 -6 -7 -6 -6 -6 -5 -5 -4 -3 -4 -3 -3 -3 -3 -3
8 8 6 4 4 5 7 4 3 2 1 0 0 -0 -2 -3 -4 -4 -4 -5 -5 -6 -6 -6 -6 -4 -4 -4 -5 -6 -6 -6 -5 -5 -5 -5 -4 -4 -4 -4 -4 -4 -4 -4
7 7 7 3 5 6 4 3 2 2 1 0 -2 -3 -4 -5 -6 -5 -6 -6 -6 -6 -6 -7 -7 -6 -5 -5 -5 -5 -6 -6 -6 -6 -6 -5 -5 -4 -4 -4 -4 -4 -4 -4
5 4 3 3 3 2 2 3 2 2 1 -1 -2 -5 -6 -7 -7 -6 -6 -7 -7 -7 -7 -8 -8 -8 -7 -7 -6 -5 -6 -6 -6 -6 -6 -6 -6 -6 -5 -5 -5 -5 -5 -5
4 3 3 2 2 2 1 0 1 2 1 -1 -3 -4 -5 -5 -6 -6 -7 -7 -8 -8 -8 -8 -8 -8 -8 -8 -6 -6 -6 -6 -6 -7 -7 -7 -7 -6 -6 -5 -5 -6 -5 -5
3 3 2 1 1 1 0 -0 -1 -2 -1 -2 -3 -4 -5 -5 -6 -7 -7 -8 -8 -8 -9 -9 -9 -8 -7 -7 -7 -6 -6 -6 -6 -6 -7 -7 -7 -7 -7 -7 -6 -6 -6 -6
4 3 2 1 1 1 -0 -1 -2 -3 -4 -4 -4 -5 -6 -6 -7 -8 -8 -9 -9 -9 -10 -10 -9 -9 -8 -7 -7 -7 -7 -7 -7 -7 -7 -7 -7 -7 -8 -8 -8 -7 -7 -7
3 1 0 0 -0 -1 -2 -2 -3 -4 -5 -5 -6 -6 -7 -7 -8 -8 -9 -9 -10 -10 -10 -10 -9 -9 -8 -7 -7 -7 -7 -7 -7 -7 -7 -7 -7 -8 -8 -7 -8 -9 -9 -8
2 2 1 -0 -1 -2 -3 -4 -4 -5 -6 -6 -7 -8 -8 -9 -10 -10 -10 -10 -10 -10 -10 -10 -10 -10 -9 -8 -7 -7 -7 -7 -7 -7 -7 -8 -8 -8 -9 -9 -9 -10 -9 -9
2 1 -1 -2 -3 -3 -4 -4 -5 -5 -6 -7 -7 -8 -9 -10 -11 -11 -10 -10 -11 -11 -11 -10 -10 -10 -9 -9 -8 -8 -8 -8 -8 -8 -8 -8 -9 -9 -9 -10 -10 -11 -10 -10
1 -0 -1 -2 -3 -3 -4 -5 -5 -6 -7 -8 -8 -9 -10 -10 -11 -11 -11 -11 -11 -12 -11 -11 -11 -11 -10 -10 -9 -8 -8 -8 -8 -8 -8 -9 -9 -9 -10 -10 -11 -11 -12 -12
-1 -2 -2 -3 -3 -5 -6 -6 -7 -9 -10 -10 -10 -10 -10 -10 -10 -10 -11 -11 -11 -11 -11 -11 -12 -11 -11 -11 -10 -10 -9 -9 -9 -9 -9 -9 -10 -10 -11 -11 -11 -12 -13 -13
-2 -1 -1 -2 -4 -5 -6 -7 -8 -9 -10 -10 -10 -10 -10 -11 -11 -11 -11 -11 -10 -10 -11 -11 -12 -12 -12 -12 -11 -11 -10 -10 -10 -10 -10 -10 -10 -11 -11 -11 -12 -12 -13 -13
-4 -4 -4 -5 -5 -6 -8 -9 -9 -10 -10 -10 -10 -10 -11 -11 -11 -11 -10 -10 -11 -11 -11 -11 -12 -12 -12 -12 -12 -12 -11 -11 -11 -11 -11 -11 -11 -11 -11 -12 -12 -13 -13 -13
-6 -6 -6 -7 -7 -8 -9 -9 -9 -10 -10 -10 -10 -10 -10 -10 -10 -10 -10 -10 -10 -11 -11 -12 -12 -13 -13 -13 -13 -13 -12 -12 -12 -12 -12 -12 -12 -12 -12 -12 -12 -13 -13 -14
-9 -8 -8 -9 -9 -9 -9 -9 -9 -10 -10 -10 -10 -10 -10 -10 -10 -10 -10 -10 -10 -10 -11 -12 -12 -13 -13 -14 -14 -13 -13 -13 -13 -13 -13 -13 -13 -13 -13 -13 -13 -13 -14 -14
-10 -10 -10 -9 -9 -9 -9 -9 -9 -9 -9 -9 -9 -9 -9 -9 -9 -10 -10 -10 -10 -10 -11 -12 -12 -13 -13 -14 -14 -14 -14 -14 -14 -14 -14 -14 -14 -14 -14 -14 -14 -14 -14 -15
-9 -9 -9 -9 -9 -9 -9 -9 -9 -8 -8 -8 -9 -9 -9 -9 -10 -11 -11 -9 -10 -10 -11 -11 -12 -13 -13 -13 -14 -14 -14 -14 -14 -14 -15 -15 -14 -14 -15 -15 -15 -15 -15 -15
-9 -9 -9 -9 -8 -8 -8 -7 -8 -8 -8 -8 -8 -9 -9 -9 -9 -9 -10 -11 -11 -11 -11 -11 -12 -12 -13 -13 -13 -14 -14 -14 -14 -15 -15 -15 -15 -15 -15 -15 -15 -15 -15 -16
-8 -8 -8 -8 -8 -7 -7 -7 -7 -8 -8 -8 -8 -9 -9 -10 -11 -10 -11 -11 -11 -11 -11 -11 -12 -12 -12 -13 -13 -13 -13 -14 -14 -15 -15 -15 -15 -15 -15 -15 -16 -16 -16 -16
-8 -8 -7 -7 -7 -7 -7 -7 -7 -8 -8 -8 -9 -9 -10 -10 -11 -11 -11 -11 -11 -11 -11 -11 -12 -12 -12 -12 -13 -13 -13 -13 -14 -14 -15 -15 -15 -15 -16 -16 -16 -16 -16 -16
-7 -7 -7 -7 -7 -7 -7 -7 -8 -9 -9 -10 -10 -10 -10 -11 -11 -11 -11 -11 -11 -12 -12 -12 -12 -12 -13 -13 -13 -13 -13 -13 -13 -14 -14 -15 -15 -15 -16 -16 -16 -16 -17 -16

GFSNGP_925_temp_117.txt.gz
Temp
9 8 8 7 7 8 8 9 9 6 5 4 3 3 2 1 0 0 -0 -0 -1 -1 -1 -2 -3 -3 -3 -3 -2 -2 -2 -2 -1 -1 -1 -1 -0 0 1 2 3 5 6 7
9 9 9 7 6 8 8 7 6 6 5 3 2 2 1 0 0 -0 -0 -1 -1 -1 -2 -2 -3 -4 -4 -4 -3 -3 -3 -3 -2 -2 -2 -2 -1 -1 -1 -0 -0 2 1 3
11 9 9 8 6 6 6 6 7 7 5 3 2 1 0 -0 -0 -1 -1 -2 -2 -3 -3 -3 -3 -4 -4 -4 -4 -4 -4 -4 -3 -3 -2 -2 -2 -2 -2 -2 -1 -1 -1 -1
11 9 9 7 5 6 5 5 5 5 4 3 1 1 -0 -1 -1 -2 -2 -2 -3 -4 -4 -4 -3 -4 -4 -5 -5 -5 -5 -5 -5 -4 -3 -3 -3 -3 -3 -3 -3 -3 -3 -2
10 10 8 7 5 6 6 5 4 4 4 3 2 3 -1 -2 -2 -3 -3 -3 -4 -4 -5 -5 -4 -4 -4 -5 -5 -6 -6 -6 -6 -5 -4 -4 -4 -3 -3 -3 -3 -4 -4 -4
9 10 9 5 4 5 6 6 3 3 3 3 4 4 0 -2 -3 -3 -4 -4 -4 -5 -5 -5 -5 -4 -4 -4 -5 -6 -6 -6 -6 -6 -5 -5 -5 -4 -4 -3 -3 -3 -4 -4
8 8 6 4 4 5 7 6 3 2 2 2 1 0 -2 -3 -4 -5 -5 -4 -5 -5 -6 -6 -6 -5 -5 -5 -5 -6 -6 -6 -6 -6 -6 -5 -5 -5 -5 -4 -4 -4 -4 -4
7 7 7 3 5 6 4 3 2 2 1 0 -1 -2 -3 -4 -5 -5 -5 -5 -5 -5 -6 -7 -6 -6 -6 -6 -5 -4 -5 -6 -6 -6 -6 -6 -5 -5 -5 -5 -4 -4 -4 -4
5 5 3 3 3 2 4 3 2 2 1 0 -2 -3 -4 -5 -6 -6 -6 -6 -6 -6 -6 -7 -7 -7 -7 -7 -5 -5 -5 -5 -6 -6 -6 -6 -6 -5 -5 -5 -5 -5 -5 -5
4 3 3 2 2 1 1 1 2 1 0 -0 -2 -3 -4 -4 -5 -6 -6 -6 -7 -6 -7 -7 -7 -7 -8 -7 -6 -5 -5 -5 -5 -6 -6 -6 -6 -6 -5 -5 -5 -5 -5 -5
3 3 2 2 1 1 1 0 -0 -1 -1 -1 -2 -3 -4 -4 -5 -6 -7 -7 -7 -7 -7 -8 -8 -8 -8 -8 -6 -5 -5 -6 -5 -6 -6 -6 -7 -7 -7 -7 -7 -6 -6 -6
5 3 3 2 1 1 0 -1 -1 -1 -3 -4 -3 -4 -4 -5 -6 -7 -7 -8 -8 -8 -8 -9 -9 -9 -9 -9 -8 -7 -6 -6 -7 -6 -7 -7 -7 -7 -8 -9 -9 -9 -8 -8
3 2 1 0 -0 -1 -1 -2 -3 -3 -4 -4 -5 -6 -6 -6 -7 -8 -8 -8 -9 -9 -10 -10 -10 -11 -9 -9 -9 -8 -8 -8 -7 -8 -8 -8 -8 -9 -8 -8 -9 -9 -10 -10
2 2 1 1 -0 -1 -2 -3 -4 -5 -5 -6 -6 -7 -8 -8 -9 -9 -9 -9 -10 -10 -11 -11 -11 -10 -10 -9 -8 -8 -8 -8 -8 -9 -9 -9 -10 -10 -11 -10 -10 -11 -10 -10
2 2 2 -1 -2 -3 -3 -4 -4 -4 -5 -6 -7 -7 -8 -9 -10 -11 -11 -10 -10 -11 -11 -11 -11 -11 -10 -10 -9 -9 -9 -9 -9 -9 -9 -9 -10 -10 -11 -11 -11 -11 -11 -12
0 -0 -0 -1 -2 -3 -3 -4 -4 -5 -6 -7 -8 -9 -9 -10 -11 -11 -11 -11 -11 -12 -12 -11 -12 -12 -11 -11 -10 -10 -10 -9 -9 -10 -10 -10 -10 -10 -10 -11 -11 -12 -13 -13
0 -1 -1 -2 -2 -3 -4 -5 -5 -7 -9 -9 -10 -10 -10 -11 -11 -11 -11 -11 -11 -11 -11 -11 -12 -12 -12 -12 -11 -12 -11 -10 -10 -10 -10 -10 -11 -11 -11 -12 -12 -12 -14 -14
0 1 0 -1 -2 -4 -5 -7 -8 -9 -10 -10 -10 -10 -10 -11 -11 -11 -11 -11 -11 -11 -11 -11 -12 -12 -12 -12 -13 -13 -12 -12 -11 -11 -11 -11 -11 -12 -12 -12 -12 -12 -13 -14
-2 -2 -3 -3 -4 -5 -7 -8 -9 -10 -10 -10 -10 -11 -11 -11 -11 -11 -10 -10 -10 -11 -11 -11 -12 -13 -13 -13 -14 -13 -13 -13 -12 -12 -12 -12 -12 -12 -12 -12 -13 -13 -14 -14
-5 -5 -6 -6 -7 -8 -9 -9 -10 -10 -10 -10 -10 -10 -10 -10 -10 -10 -10 -10 -10 -10 -11 -12 -12 -13 -13 -13 -14 -14 -14 -13 -13 -13 -13 -13 -13 -13 -13 -13 -13 -14 -14 -15
-8 -8 -8 -9 -10 -9 -9 -9 -9 -10 -10 -10 -9 -9 -10 -10 -10 -10 -10 -10 -9 -10 -11 -11 -12 -12 -13 -13 -14 -14 -14 -14 -14 -14 -14 -14 -14 -14 -14 -14 -14 -14 -14 -15
-10 -10 -10 -10 -9 -10 -10 -10 -9 -9 -9 -9 -9 -9 -9 -10 -10 -10 -10 -10 -10 -10 -11 -11 -12 -12 -12 -13 -13 -14 -14 -15 -15 -15 -14 -15 -15 -15 -15 -15 -15 -15 -15 -15
-10 -10 -10 -9 -9 -9 -9 -9 -9 -8 -8 -8 -9 -9 -10 -10 -10 -11 -10 -11 -11 -12 -11 -11 -12 -12 -12 -13 -13 -13 -14 -14 -14 -14 -15 -15 -15 -16 -16 -16 -15 -16 -16 -16
-10 -10 -9 -9 -9 -9 -9 -8 -8 -8 -8 -8 -8 -9 -9 -10 -10 -10 -11 -11 -11 -11 -12 -11 -12 -12 -13 -13 -13 -13 -13 -13 -14 -14 -14 -15 -15 -15 -16 -16 -16 -16 -16 -16
-9 -9 -9 -9 -9 -8 -7 -7 -8 -8 -8 -8 -9 -9 -10 -11 -11 -11 -11 -11 -11 -11 -12 -12 -12 -12 -12 -12 -13 -13 -13 -13 -13 -14 -14 -14 -15 -15 -16 -16 -16 -16 -16 -16
-9 -8 -8 -8 -7 -7 -7 -7 -8 -8 -9 -9 -9 -10 -10 -11 -11 -11 -12 -12 -12 -12 -12 -12 -12 -13 -13 -13 -13 -14 -14 -14 -14 -14 -14 -14 -14 -15 -15 -15 -16 -16 -16 -16
-8 -8 -8 -8 -7 -7 -7 -8 -9 -9 -10 -10 -11 -11 -11 -12 -12 -12 -13 -13 -13 -13 -13 -14 -14 -14 -14 -15 -14 -14 -15 -15 -15 -15 -15 -15 -15 -14 -15 -15 -16 -16 -16 -17

GFSNGP_925_temp_120.txt.gz
Temp
11 9 10 9 8 9 9 10 10 8 6 5 4 3 2 1 1 1 0 -0 -1 -1 -1 -2 -2 -3 -2 -1 -1 -1 -0 0 1 -0 -0 -0 -0 -0 -0 -0 0 1 1 3
10 10 10 9 7 9 9 8 7 8 5 4 3 2 1 1 1 1 1 -0 -1 -1 -2 -2 -2 -2 -3 -2 -2 -1 -1 -1 -0 0 -1 -1 -1 -1 -1 -1 -1 -1 -1 -0
13 10 12 11 7 7 8 8 9 9 6 4 3 2 1 1 1 1 0 -0 -2 -2 -3 -3 -2 -2 -3 -3 -3 -3 -2 -2 -1 -1 -1 -1 -2 -2 -2 -2 -2 -2 -2 -2
13 11 12 7 8 9 8 7 8 7 5 5 3 1 0 0 -0 -0 -1 -1 -2 -3 -3 -3 -3 -2 -2 -3 -3 -4 -4 -4 -3 -2 -2 -2 -2 -2 -2 -2 -2 -3 -3 -3
11 12 8 7 7 8 8 6 6 6 5 4 3 4 0 -1 -0 -1 -1 -1 -1 -2 -3 -3 -3 -3 -3 -3 -4 -4 -4 -5 -4 -4 -3 -3 -3 -3 -2 -2 -3 -3 -3 -4
11 11 11 8 6 6 7 8 6 6 5 6 4 6 2 -1 -2 -1 -1 -1 -2 -2 -2 -2 -2 -3 -3 -4 -4 -4 -4 -5 -5 -5 -4 -4 -4 -3 -3 -3 -3 -3 -3 -4
11 11 8 6 5 5 8 7 6 6 6 6 5 3 -1 -1 -2 -2 -1 -2 -1 -1 -2 -2 -2 -2 -3 -3 -3 -3 -4 -4 -4 -5 -5 -4 -4 -4 -4 -3 -3 -3 -3 -4
10 10 9 5 5 7 5 6 6 6 5 3 1 -1 -2 -3 -3 -2 -1 -2 -2 -1 -2 -3 -3 -2 -3 -3 -2 -2 -2 -3 -3 -4 -4 -4 -4 -4 -3 -3 -3 -3 -3 -3
7 7 4 3 3 4 6 5 5 5 4 3 1 -2 -3 -3 -3 -2 -2 -2 -2 -2 -2 -3 -3 -3 -3 -4 -2 -2 -2 -2 -2 -3 -3 -3 -3 -4 -3 -3 -3 -3 -3 -4
6 4 4 3 2 3 5 4 4 4 3 3 0 -1 -2 -1 -2 -2 -2 -2 -2 -2 -3 -3 -4 -4 -4 -4 -3 -2 -2 -2 -2 -2 -2 -3 -3 -4 -5 -5 -5 -5 -5 -5
4 3 3 2 2 2 2 3 2 3 2 2 1 1 0 -0 -1 -2 -3 -3 -3 -4 -4 -4 -5 -5 -6 -5 -4 -3 -3 -3 -3 -3 -3 -3 -3 -6 -6 -7 -8 -7 -7 -6
7 4 4 3 1 1 2 2 2 1 1 0 0 -0 -1 -2 -3 -3 -3 -4 -4 -5 -5 -6 -6 -7 -7 -7 -6 -5 -4 -4 -4 -4 -4 -4 -4 -4 -6 -8 -10 -10 -9 -9
4 3 2 1 1 1 2 1 1 0 -0 -1 -2 -2 -2 -3 -4 -5 -4 -5 -5 -6 -6 -7 -8 -9 -10 -9 -8 -8 -6 -7 -5 -5 -5 -6 -6 -6 -6 -6 -8 -10 -11 -11
4 3 1 1 2 1 1 -1 -1 -2 -2 -2 -3 -4 -4 -5 -6 -6 -7 -6 -7 -7 -8 -9 -9 -11 -11 -11 -10 -9 -7 -7 -7 -6 -6 -7 -7 -7 -7 -7 -7 -7 -9 -10
5 4 5 2 2 1 -0 -0 -0 -1 -2 -3 -4 -4 -5 -6 -7 -7 -7 -7 -7 -8 -9 -10 -10 -11 -12 -11 -10 -9 -8 -8 -8 -7 -7 -8 -7 -7 -7 -7 -8 -8 -9 -9
4 3 3 2 1 1 0 0 -1 -2 -3 -4 -5 -6 -6 -7 -8 -9 -9 -10 -8 -9 -11 -11 -11 -12 -11 -12 -11 -9 -8 -8 -9 -8 -7 -7 -7 -8 -8 -8 -8 -8 -9 -11
3 3 2 2 1 0 -0 -1 -3 -4 -5 -6 -8 -8 -8 -9 -9 -10 -11 -11 -11 -11 -11 -12 -12 -12 -12 -13 -12 -9 -9 -9 -9 -8 -8 -8 -8 -8 -8 -9 -9 -9 -10 -13
5 4 3 3 1 -1 -2 -4 -5 -6 -7 -8 -9 -10 -10 -10 -9 -10 -11 -10 -10 -11 -11 -11 -11 -12 -13 -13 -12 -10 -10 -9 -9 -9 -9 -9 -10 -9 -9 -9 -9 -10 -10 -11
3 3 1 1 -1 -2 -3 -4 -6 -8 -9 -10 -10 -10 -10 -10 -11 -11 -11 -11 -11 -9 -9 -10 -11 -12 -12 -12 -13 -10 -10 -10 -10 -10 -10 -10 -10 -10 -10 -10 -10 -10 -11 -11
0 -0 -1 -2 -3 -4 -6 -8 -9 -10 -10 -10 -9 -10 -10 -11 -10 -11 -11 -10 -9 -9 -10 -11 -11 -11 -12 -12 -13 -11 -11 -11 -11 -11 -11 -12 -11 -11 -11 -11 -11 -11 -12 -12
-3 -4 -6 -7 -8 -9 -9 -9 -9 -10 -10 -10 -10 -10 -10 -10 -10 -10 -9 -7 -7 -10 -11 -11 -11 -11 -11 -12 -11 -11 -12 -12 -12 -12 -12 -12 -12 -12 -12 -12 -12 -12 -12 -12
-6 -7 -8 -9 -9 -10 -10 -10 -9 -9 -9 -10 -10 -10 -10 -9 -9 -9 -9 -9 -9 -10 -11 -10 -10 -11 -11 -12 -11 -11 -12 -12 -12 -12 -12 -12 -12 -13 -13 -13 -13 -13 -13 -13
-7 -8 -8 -9 -8 -8 -10 -10 -9 -9 -9 -9 -9 -9 -9 -8 -8 -8 -7 -9 -10 -10 -11 -10 -11 -12 -12 -12 -12 -11 -12 -12 -12 -12 -12 -12 -13 -13 -13 -13 -14 -14 -14 -14
-7 -7 -8 -8 -9 -8 -7 -8 -9 -8 -8 -8 -8 -9 -9 -8 -8 -8 -9 -10 -11 -11 -11 -11 -11 -12 -12 -12 -12 -12 -12 -12 -12 -12 -12 -13 -13 -13 -13 -13 -14 -14 -14 -14
-7 -8 -8 -8 -6 -5 -5 -6 -6 -6 -7 -7 -8 -9 -10 -10 -10 -10 -11 -11 -11 -12 -11 -11 -12 -13 -13 -12 -12 -13 -13 -13 -13 -13 -13 -13 -13 -13 -13 -13 -14 -14 -14 -15
-7 -6 -6 -6 -4 -4 -5 -5 -4 -5 -6 -6 -7 -9 -10 -11 -11 -11 -11 -12 -12 -13 -12 -13 -13 -14 -14 -13 -14 -14 -14 -14 -14 -14 -14 -14 -14 -14 -13 -13 -14 -14 -14 -15
-6 -6 -5 -5 -5 -5 -5 -6 -6 -6 -8 -8 -8 -10 -11 -11 -12 -13 -13 -13 -14 -14 -14 -14 -15 -15 -16 -16 -16 -15 -15 -15 -15 -15 -15 -15 -15 -15 -15 -14 -14 -14 -14 -15

GFSNGP_925_temp_123.txt.gz
Temp
14 14 13 11 9 11 11 12 12 9 8 6 5 4 3 3 4 3 1 1 -0 -1 -1 -2 -1 -2 -1 -1 -1 0 0 1 1 1 1 -0 -0 -1 -1 -1 -1 -0 -0 0
10 13 12 10 9 11 11 10 9 10 7 6 5 5 3 4 4 3 2 1 -0 -1 -1 -2 -1 -1 -1 -1 -2 -1 -1 -0 1 1 1 -0 -1 -1 -1 -2 -2 -1 -1 -1
14 14 13 11 8 9 10 12 11 11 8 7 6 5 2 3 3 2 2 1 -1 -1 -2 -2 -2 -1 -2 -1 -2 -3 -2 -2 -1 -0 -0 -0 -0 -1 -1 -2 -2 -3 -3 -2
14 13 12 8 12 12 11 11 11 9 7 8 6 4 3 2 2 1 1 1 1 -1 -2 -2 -2 -2 -2 -2 -2 -3 -3 -3 -3 -2 -2 -2 -2 -2 -2 -2 -2 -3 -3 -3
13 15 9 9 10 11 11 9 9 9 8 7 5 5 2 1 1 2 2 2 2 1 1 0 -1 -1 -2 -2 -2 -3 -3 -4 -4 -3 -3 -3 -3 -2 -2 -2 -2 -3 -3 -3
13 13 13 9 9 10 11 10 9 9 8 7 6 6 4 1 -0 1 2 2 2 2 1 1 1 -0 -1 -1 -2 -2 -2 -3 -4 -4 -3 -3 -3 -3 -3 -2 -3 -3 -3 -3
12 13 10 8 8 7 9 8 8 9 9 8 6 3 1 1 -1 1 2 2 2 2 1 1 1 1 -0 0 0 -0 -1 -1 -2 -3 -3 -3 -3 -3 -3 -2 -2 -3 -3 -3
12 12 11 7 6 7 7 7 7 7 6 4 2 1 -1 -1 -1 1 3 2 2 1 0 -0 -0 0 -0 0 1 1 1 0 -0 -0 -1 -2 -2 -3 -3 -3 -3 -3 -3 -3
10 8 6 4 5 6 6 6 6 6 6 4 2 -1 -1 -2 -1 1 2 2 1 1 0 -1 -1 -1 -1 -1 0 1 1 0 0 -0 0 -0 -1 -2 -3 -4 -4 -4 -4 -4
8 6 5 4 4 4 4 4 6 6 5 4 2 1 1 1 2 2 2 1 1 0 -0 -1 -2 -3 -3 -2 -1 -0 0 -0 -1 -0 -1 -1 -2 -2 -4 -5 -5 -5 -6 -6
6 5 5 3 3 3 2 4 5 5 5 4 4 4 3 3 2 1 1 0 -0 -1 -1 -2 -3 -4 -4 -4 -3 -2 -2 -2 -2 -1 -2 -2 -2 -4 -4 -7 -8 -8 -8 -7
8 6 5 4 2 2 2 2 4 3 3 3 3 3 2 1 1 0 -0 -1 -1 -2 -3 -4 -5 -6 -7 -6 -5 -5 -3 -3 -3 -3 -3 -3 -3 -3 -5 -6 -8 -9 -9 -10
6 4 3 2 2 1 1 3 3 3 2 2 2 1 1 -0 -2 -2 -1 -2 -3 -4 -4 -5 -6 -8 -9 -9 -8 -7 -6 -5 -5 -4 -4 -4 -4 -4 -4 -5 -6 -8 -9 -9
5 4 2 2 2 3 3 2 2 1 1 1 0 -1 -1 -2 -3 -4 -4 -4 -5 -5 -6 -7 -8 -9 -10 -10 -9 -8 -7 -6 -6 -5 -5 -5 -6 -6 -5 -5 -5 -5 -7 -8
5 6 4 4 4 3 2 2 2 1 0 -0 -1 -2 -3 -3 -4 -5 -5 -5 -5 -6 -7 -8 -9 -10 -11 -11 -10 -8 -7 -6 -7 -6 -6 -6 -6 -6 -6 -6 -6 -6 -6 -7
6 5 4 4 4 3 3 2 2 1 -0 -1 -2 -3 -3 -4 -5 -6 -7 -8 -7 -7 -9 -10 -10 -11 -11 -12 -11 -8 -7 -7 -7 -7 -6 -6 -6 -6 -6 -6 -6 -6 -7 -9
5 5 5 4 3 3 2 2 0 -1 -2 -4 -5 -6 -6 -7 -7 -8 -9 -10 -9 -10 -10 -9 -10 -11 -11 -12 -11 -8 -7 -7 -7 -7 -7 -7 -7 -7 -7 -7 -7 -7 -7 -10
7 6 5 4 3 2 1 -0 -2 -3 -4 -5 -7 -8 -8 -7 -7 -8 -9 -10 -9 -9 -9 -9 -10 -11 -11 -11 -11 -9 -8 -8 -8 -7 -7 -8 -8 -8 -8 -8 -8 -8 -8 -9
6 5 5 3 2 1 -0 -2 -3 -4 -7 -9 -9 -8 -8 -9 -8 -9 -9 -10 -9 -8 -8 -10 -10 -10 -9 -10 -11 -9 -8 -9 -9 -8 -9 -9 -9 -9 -9 -9 -9 -9 -9 -9
4 3 3 2 0 -1 -3 -6 -8 -8 -9 -9 -9 -9 -8 -9 -9 -10 -9 -9 -8 -7 -8 -9 -10 -9 -9 -9 -10 -10 -9 -9 -9 -9 -9 -10 -10 -10 -10 -10 -10 -10 -10 -10
-0 -1 -2 -4 -5 -6 -7 -8 -8 -9 -9 -9 -8 -8 -8 -8 -9 -9 -9 -5 -7 -9 -9 -9 -9 -9 -8 -9 -10 -9 -9 -10 -10 -10 -10 -10 -10 -11 -11 -11 -11 -11 -11 -11
-3 -5 -6 -7 -7 -8 -8 -7 -8 -9 -9 -9 -9 -8 -8 -8 -8 -8 -8 -7 -7 -8 -9 -8 -8 -9 -9 -10 -10 -10 -10 -10 -10 -10 -10 -11 -11 -11 -11 -11 -12 -12 -12 -12
-5 -6 -6 -7 -7 -7 -7 -8 -9 -8 -9 -8 -9 -8 -7 -6 -6 -6 -6 -7 -8 -9 -10 -9 -9 -10 -11 -12 -11 -11 -10 -10 -10 -11 -11 -11 -11 -11 -11 -12 -12 -12 -12 -12
-5 -5 -6 -6 -7 -7 -6 -7 -7 -7 -8 -8 -8 -8 -8 -6 -6 -6 -7 -8 -9 -11 -10 -10 -10 -11 -12 -12 -11 -11 -11 -11 -11 -11 -11 -12 -12 -12 -11 -11 -12 -12 -13 -13
-5 -5 -6 -6 -4 -4 -4 -5 -5 -5 -6 -5 -6 -7 -8 -7 -8 -8 -9 -10 -10 -11 -11 -11 -12 -12 -12 -12 -12 -12 -12 -12 -12 -12 -12 -12 -12 -13 -13 -12 -12 -12 -12 -13
-4 -4 -4 -3 -2 -2 -2 -3 -2 -3 -4 -4 -5 -7 -8 -9 -9 -10 -10 -11 -11 -12 -12 -12 -13 -13 -14 -14 -15 -14 -14 -14 -14 -14 -14 -14 -14 -14 -14 -14 -13 -13 -13 -13
-3 -3 -3 -3 -3 -2 -3 -3 -3 -4 -6 -6 -6 -8 -8 -9 -10 -11 -11 -12 -12 -13 -13 -14 -14 -15 -15 -16 -16 -16 -16 -16 -16 -17 -17 -17 -16 -16 -16 -16 -16 -15 -14 -15